WA9SDJ-13 Weather Reports


time (UTC)temp
F
wind
direction
speed
knots
gust
knots
rain 1hr
in
rain 24hr
in
rain mn
in
humidity
%
barometer
mb
20260905205102 92 334 1.7 4.3 0.00 0.00 0.00 64 1010.8
20260905205003 92 331 1.7 5.2 0.00 0.00 0.00 63 1010.8
20260905204902 92 331 1.7 5.2 0.00 0.00 0.00 63 1010.7
20260905204803 92 331 1.7 5.2 0.00 0.00 0.00 63 1010.8
20260905204703 92 331 1.7 5.2 0.00 0.00 0.00 63 1010.8
20260905204601 92 331 0.9 5.2 0.00 0.00 0.00 63 1010.9
20260905204502 92 331 1.7 5.2 0.00 0.00 0.00 63 1010.8
20260905204403 92 331 1.7 5.2 0.00 0.00 0.00 63 1010.8
20260905204303 92 331 2.6 5.2 0.00 0.00 0.00 63 1010.9
20260905204201 92 334 2.6 5.2 0.00 0.00 0.00 62 1011.0
20260905204102 92 341 2.6 5.2 0.00 0.00 0.00 62 1011.0
20260905204003 93 0 1.7 7.8 0.00 0.00 0.00 62 1011.0
20260905203902 93 7 2.6 8.7 0.00 0.00 0.00 62 1011.0
20260905203803 93 329 2.6 8.7 0.00 0.00 0.00 62 1011.0
20260905203702 93 314 2.6 8.7 0.00 0.00 0.00 61 1011.1
20260905203602 93 333 2.6 8.7 0.00 0.00 0.00 61 1011.0
20260905203503 94 314 2.6 8.7 0.00 0.00 0.00 60 1011.0
20260905203402 94 314 3.5 8.7 0.00 0.00 0.00 59 1011.1
20260905203302 94 298 4.3 8.7 0.00 0.00 0.00 59 1011.0
20260905203202 95 333 4.3 8.7 0.00 0.00 0.00 58 1011.0
20260905203101 95 327 5.2 8.7 0.00 0.00 0.00 58 1011.1
20260905203000 95 7 5.2 8.7 0.00 0.00 0.00 57 1011.1
20260905202858 96 341 6.1 8.7 0.00 0.00 0.00 57 1011.0
20260905202757 96 314 5.2 8.7 0.00 0.00 0.00 57 1011.0
20260905202655 96 338 5.2 8.7 0.00 0.00 0.00 58 1011.0
20260905202553 96 3 5.2 8.7 0.00 0.00 0.00 56 1011.1
20260905202452 96 20 5.2 9.6 0.00 0.00 0.00 55 1011.1
20260905202351 96 24 5.2 9.6 0.00 0.00 0.00 56 1011.1
20260905202249 96 289 4.3 9.6 0.00 0.00 0.00 56 1011.0
20260905202147 96 355 3.5 9.6 0.00 0.00 0.00 58 1010.9
20260905202046 96 0 3.5 9.6 0.00 0.00 0.00 56 1010.9
20260905201945 96 0 3.5 9.6 0.00 0.00 0.00 55 1010.9
20260905201843 96 312 3.5 9.6 0.00 0.00 0.00 55 1011.0
20260905201741 96 18 5.2 9.6 0.00 0.00 0.00 56 1011.0
20260905201638 96 337 6.1 9.6 0.00 0.00 0.00 55 1011.1
20260905201536 96 295 5.2 9.6 0.00 0.00 0.00 55 1011.1
20260905201434 96 348 2.6 9.6 0.00 0.00 0.00 56 1011.1
20260905201333 96 300 3.5 9.6 0.00 0.00 0.00 56 1011.0
20260905201231 96 314 4.3 9.6 0.00 0.00 0.00 56 1011.0
20260905201131 96 313 5.2 9.6 0.00 0.00 0.00 55 1011.0
20260905201032 96 353 4.3 9.6 0.00 0.00 0.00 54 1011.0
20260905200931 96 357 3.5 9.6 0.00 0.00 0.00 55 1011.1
20260905200831 96 4 3.5 9.6 0.00 0.00 0.00 55 1011.1
20260905200731 96 7 4.3 9.6 0.00 0.00 0.00 55 1011.1
20260905200630 96 337 5.2 9.6 0.00 0.00 0.00 55 1011.2
20260905200531 96 0 7.0 9.6 0.00 0.00 0.00 56 1011.2
20260905200430 96 7 5.2 9.6 0.00 0.00 0.00 55 1011.3
20260905200326 96 343 3.5 8.7 0.00 0.00 0.00 56 1011.3
20260905200224 96 353 3.5 7.8 0.00 0.00 0.00 55 1011.3
20260905200123 96 320 3.5 7.8 0.00 0.00 0.00 54 1011.3
20260905200023 95 334 3.5 7.8 0.00 0.00 0.00 55 1011.2
20260905195921 95 0 3.5 7.8 0.00 0.00 0.00 56 1011.2
20260905195821 95 0 3.5 7.8 0.00 0.00 0.00 56 1011.3
20260905195721 95 316 4.3 7.8 0.00 0.00 0.00 56 1011.2
20260905195621 96 8 4.3 7.8 0.00 0.00 0.00 57 1011.3
20260905195522 96 319 3.5 7.8 0.00 0.00 0.00 57 1011.3
20260905195422 96 288 3.5 7.8 0.00 0.00 0.00 56 1011.2
20260905195321 96 247 4.3 6.1 0.00 0.00 0.00 56 1011.2
20260905195221 96 285 3.5 6.1 0.00 0.00 0.00 56 1011.2
20260905195122 96 20 1.7 6.1 0.00 0.00 0.00 57 1011.2
20260905195021 96 224 0.9 6.1 0.00 0.00 0.00 58 1011.3
20260905194921 96 224 2.6 6.1 0.00 0.00 0.00 57 1011.3
20260905194821 96 286 3.5 6.1 0.00 0.00 0.00 57 1011.3
20260905194721 96 7 3.5 6.1 0.00 0.00 0.00 56 1011.3
20260905194621 96 347 3.5 5.2 0.00 0.00 0.00 57 1011.3
20260905194521 96 310 3.5 6.1 0.00 0.00 0.00 55 1011.4
20260905194422 96 10 2.6 6.1 0.00 0.00 0.00 56 1011.4
20260905194321 96 348 2.6 6.1 0.00 0.00 0.00 56 1011.4
20260905194221 96 331 3.5 7.8 0.00 0.00 0.00 56 1011.4
20260905194122 96 17 2.6 7.8 0.00 0.00 0.00 57 1011.3
20260905194022 96 320 2.6 7.8 0.00 0.00 0.00 56 1011.3
20260905193921 96 324 1.7 7.8 0.00 0.00 0.00 54 1011.3
20260905193821 96 323 2.6 7.8 0.00 0.00 0.00 54 1011.2
20260905193721 96 320 3.5 7.8 0.00 0.00 0.00 54 1011.2
20260905193621 96 290 3.5 7.8 0.00 0.00 0.00 54 1011.2
20260905193521 96 344 3.5 7.8 0.00 0.00 0.00 54 1011.2
20260905193420 96 0 4.3 7.8 0.00 0.00 0.00 55 1011.2
20260905193320 96 323 4.3 7.8 0.00 0.00 0.00 55 1011.2
20260905193221 96 336 3.5 6.1 0.00 0.00 0.00 55 1011.1
20260905193121 96 343 2.6 6.1 0.00 0.00 0.00 55 1011.1
20260905193021 96 7 2.6 6.1 0.00 0.00 0.00 56 1011.2
20260905192921 96 10 3.5 7.8 0.00 0.00 0.00 56 1011.1
20260905192821 96 331 4.3 7.8 0.00 0.00 0.00 55 1011.2
20260905192720 96 340 4.3 7.8 0.00 0.00 0.00 56 1011.3
20260905192620 96 329 3.5 7.8 0.00 0.00 0.00 57 1011.3
20260905192520 95 326 3.5 7.8 0.00 0.00 0.00 60 1011.3
20260905192421 95 274 2.6 7.8 0.00 0.00 0.00 61 1011.4
20260905192321 95 334 0.9 7.8 0.00 0.00 0.00 63 1011.4
20260905192221 95 279 1.7 7.8 0.00 0.00 0.00 64 1011.4
20260905192121 94 279 2.6 7.8 0.00 0.00 0.00 62 1011.4
20260905192021 94 298 2.6 7.8 0.00 0.00 0.00 60 1011.4
20260905191920 94 24 2.6 5.2 0.00 0.00 0.00 60 1011.4
20260905191819 94 42 2.6 4.3 0.00 0.00 0.00 59 1011.4
20260905191720 94 42 1.7 4.3 0.00 0.00 0.00 59 1011.4
20260905191620 94 13 0.9 4.3 0.00 0.00 0.00 59 1011.5
20260905191520 94 13 1.7 4.3 0.00 0.00 0.00 59 1011.5
20260905191420 94 13 2.6 4.3 0.00 0.00 0.00 60 1011.5
20260905191320 94 41 1.7 3.5 0.00 0.00 0.00 60 1011.4
20260905191220 94 55 0.9 3.5 0.00 0.00 0.00 61 1011.5
20260905191120 94 55 1.7 3.5 0.00 0.00 0.00 61 1011.4
20260905191021 94 55 0.9 3.5 0.00 0.00 0.00 63 1011.4
20260905190921 94 55 0.0 3.5 0.00 0.00 0.00 63 1011.4
20260905190820 94 55 0.9 3.5 0.00 0.00 0.00 63 1011.4
20260905190720 94 55 1.7 3.5 0.00 0.00 0.00 64 1011.4
20260905190620 94 55 1.7 3.5 0.00 0.00 0.00 63 1011.4
20260905190520 94 55 1.7 2.6 0.00 0.00 0.00 64 1011.4
20260905190420 94 55 0.9 2.6 0.00 0.00 0.00 64 1011.4
20260905190320 94 55 0.9 2.6 0.00 0.00 0.00 64 1011.4
20260905190220 94 55 0.9 2.6 0.00 0.00 0.00 64 1011.5
20260905190120 94 31 0.9 2.6 0.00 0.00 0.00 65 1011.5
20260905190020 93 31 0.9 2.6 0.00 0.00 0.00 66 1011.5
20260905185920 93 31 0.0 2.6 0.00 0.00 0.00 66 1011.5
20260905185820 93 31 0.9 2.6 0.00 0.00 0.00 63 1011.5
20260905185720 93 31 0.9 2.6 0.00 0.00 0.00 63 1011.5
20260905185620 93 31 0.0 2.6 0.00 0.00 0.00 64 1011.7
20260905185520 93 31 0.0 2.6 0.00 0.00 0.00 63 1011.8
20260905185419 93 31 0.0 2.6 0.00 0.00 0.00 62 1011.8
20260905185320 93 31 0.9 2.6 0.00 0.00 0.00 62 1011.8
20260905185220 93 31 0.9 2.6 0.00 0.00 0.00 63 1011.8
20260905185120 93 31 0.0 1.7 0.00 0.00 0.00 63 1011.9
20260905185020 94 31 0.0 1.7 0.00 0.00 0.00 63 1011.9
20260905184920 94 31 0.0 1.7 0.00 0.00 0.00 63 1011.9
20260905184820 94 31 0.0 1.7 0.00 0.00 0.00 63 1011.8
20260905184720 94 31 0.0 1.7 0.00 0.00 0.00 62 1011.8
20260905184620 94 31 0.0 2.6 0.00 0.00 0.00 62 1011.8
20260905184519 94 31 0.0 2.6 0.00 0.00 0.00 62 1011.8
20260905184419 94 31 0.0 2.6 0.00 0.00 0.00 62 1011.9
20260905184320 95 31 0.9 3.5 0.00 0.00 0.00 62 1011.8
20260905184220 95 31 0.9 4.3 0.00 0.00 0.00 60 1011.8
20260905184120 95 31 0.0 4.3 0.00 0.00 0.00 59 1011.8
20260905184020 95 31 0.0 4.3 0.00 0.00 0.00 58 1011.9
20260905183920 95 31 0.0 4.3 0.00 0.00 0.00 58 1011.9
20260905183820 95 31 0.9 4.3 0.00 0.00 0.00 58 1012.0
20260905183719 95 31 0.9 4.3 0.00 0.00 0.00 57 1011.9
20260905183620 96 31 0.9 4.3 0.00 0.00 0.00 57 1012.0
20260905183519 96 31 1.7 4.3 0.00 0.00 0.00 57 1012.0
20260905183419 96 31 3.5 4.3 0.00 0.00 0.00 58 1012.0
20260905183319 96 30 2.6 4.3 0.00 0.00 0.00 57 1012.0
20260905183219 96 336 2.6 4.3 0.00 0.00 0.00 57 1012.0
20260905183119 96 303 2.6 4.3 0.00 0.00 0.00 57 1012.0
20260905183019 96 0 2.6 3.5 0.00 0.00 0.00 56 1012.0
20260905182919 96 0 1.7 3.5 0.00 0.00 0.00 57 1012.0
20260905182819 96 37 0.9 2.6 0.00 0.00 0.00 56 1012.0
20260905182719 96 37 1.7 2.6 0.00 0.00 0.00 56 1012.1
20260905182619 96 37 1.7 2.6 0.00 0.00 0.00 57 1012.1
20260905182519 96 41 0.9 2.6 0.00 0.00 0.00 56 1012.1
20260905182419 96 41 0.0 2.6 0.00 0.00 0.00 56 1012.2
20260905182319 96 41 0.0 2.6 0.00 0.00 0.00 58 1012.2
20260905182219 96 41 0.9 2.6 0.00 0.00 0.00 57 1012.2
20260905182119 96 41 0.0 2.6 0.00 0.00 0.00 57 1012.2
20260905182019 96 251 0.0 1.7 0.00 0.00 0.00 57 1012.2
20260905181919 96 251 0.0 1.7 0.00 0.00 0.00 57 1012.2
20260905181819 95 251 0.0 1.7 0.00 0.00 0.00 59 1012.3
20260905181719 95 251 0.0 1.7 0.00 0.00 0.00 58 1012.2
20260905181619 95 251 0.0 1.7 0.00 0.00 0.00 58 1012.3
20260905181519 95 251 0.0 1.7 0.00 0.00 0.00 57 1012.3
20260905181419 95 251 0.0 1.7 0.00 0.00 0.00 57 1012.3
20260905181319 95 251 0.0 1.7 0.00 0.00 0.00 57 1012.4
20260905181219 95 251 0.0 1.7 0.00 0.00 0.00 58 1012.3
20260905181119 95 251 0.0 2.6 0.00 0.00 0.00 59 1012.3
20260905181019 95 251 0.0 2.6 0.00 0.00 0.00 59 1012.3
20260905180919 94 251 0.0 2.6 0.00 0.00 0.00 60 1012.3
20260905180819 94 251 0.0 2.6 0.00 0.00 0.00 62 1012.4
20260905180719 94 251 0.0 2.6 0.00 0.00 0.00 62 1012.4
20260905180619 94 251 0.0 2.6 0.00 0.00 0.00 61 1012.4
20260905180519 94 251 0.0 2.6 0.00 0.00 0.00 62 1012.4
20260905180418 94 251 0.0 2.6 0.00 0.00 0.00 61 1012.4
20260905180318 94 251 0.9 2.6 0.00 0.00 0.00 61 1012.5
20260905180218 94 251 1.7 2.6 0.00 0.00 0.00 61 1012.5
20260905180118 94 251 0.9 2.6 0.00 0.00 0.00 62 1012.5
20260905180019 94 251 0.9 3.5 0.00 0.00 0.00 62 1012.5
20260905175919 94 251 1.7 3.5 0.00 0.00 0.00 59 1012.5
20260905175819 94 251 0.9 3.5 0.00 0.00 0.00 61 1012.5
20260905175719 94 251 0.0 3.5 0.00 0.00 0.00 60 1012.6
20260905175618 94 251 0.0 3.5 0.00 0.00 0.00 58 1012.5
20260905175518 94 251 0.0 3.5 0.00 0.00 0.00 58 1012.6
20260905175418 94 251 0.9 3.5 0.00 0.00 0.00 58 1012.6
20260905175318 94 251 1.7 3.5 0.00 0.00 0.00 59 1012.7
20260905175218 94 251 1.7 3.5 0.00 0.00 0.00 60 1012.7
20260905175118 94 251 1.7 3.5 0.00 0.00 0.00 59 1012.6
20260905175018 94 252 1.7 3.5 0.00 0.00 0.00 61 1012.7
20260905174918 94 269 0.9 2.6 0.00 0.00 0.00 62 1012.7
20260905174818 94 227 0.9 2.6 0.00 0.00 0.00 63 1012.6
20260905174719 94 226 0.9 3.5 0.00 0.00 0.00 62 1012.6
20260905174619 94 226 0.9 3.5 0.00 0.00 0.00 64 1012.6
20260905174519 94 226 0.9 3.5 0.00 0.00 0.00 62 1012.6
20260905174418 94 147 0.0 3.5 0.00 0.00 0.00 61 1012.6
20260905174318 94 94 0.0 3.5 0.00 0.00 0.00 62 1012.6
20260905174218 93 79 0.9 3.5 0.00 0.00 0.00 62 1012.6
20260905174118 93 0 1.7 3.5 0.00 0.00 0.00 61 1012.6
20260905174018 93 0 1.7 3.5 0.00 0.00 0.00 61 1012.6
20260905173918 93 0 1.7 3.5 0.00 0.00 0.00 61 1012.7
20260905173819 93 0 0.9 3.5 0.00 0.00 0.00 61 1012.6
20260905173718 93 331 0.0 3.5 0.00 0.00 0.00 62 1012.7
20260905173618 93 336 0.0 3.5 0.00 0.00 0.00 61 1012.7
20260905173518 93 334 0.9 3.5 0.00 0.00 0.00 61 1012.7
20260905173418 93 44 2.6 3.5 0.00 0.00 0.00 61 1012.6
20260905173318 93 220 2.6 3.5 0.00 0.00 0.00 64 1012.7
20260905173217 93 226 1.7 3.5 0.00 0.00 0.00 63 1012.6
20260905173118 93 247 1.7 3.5 0.00 0.00 0.00 63 1012.7
20260905173018 93 247 1.7 3.5 0.00 0.00 0.00 63 1012.7
20260905172918 93 245 0.9 3.5 0.00 0.00 0.00 63 1012.6
20260905172818 93 238 0.9 3.5 0.00 0.00 0.00 63 1012.6
20260905172718 93 238 0.9 3.5 0.00 0.00 0.00 62 1012.6
20260905172618 93 238 1.7 3.5 0.00 0.00 0.00 63 1012.6
20260905172518 93 258 0.9 2.6 0.00 0.00 0.00 63 1012.7
20260905172418 93 298 1.7 2.6 0.00 0.00 0.00 61 1012.7
20260905172317 93 298 1.7 2.6 0.00 0.00 0.00 62 1012.6
20260905172217 93 303 0.9 2.6 0.00 0.00 0.00 64 1012.6
20260905172117 93 307 0.9 2.6 0.00 0.00 0.00 65 1012.6
20260905172017 93 309 0.0 2.6 0.00 0.00 0.00 66 1012.6
20260905171917 93 309 0.0 2.6 0.00 0.00 0.00 66 1012.6
20260905171818 93 316 0.9 2.6 0.00 0.00 0.00 65 1012.6
20260905171718 93 292 0.0 2.6 0.00 0.00 0.00 66 1012.6
20260905171618 92 251 0.0 2.6 0.00 0.00 0.00 66 1012.6
20260905171518 92 252 0.0 2.6 0.00 0.00 0.00 67 1012.7
20260905171418 92 252 0.9 2.6 0.00 0.00 0.00 66 1012.6
20260905171317 92 252 0.9 2.6 0.00 0.00 0.00 65 1012.6
20260905171218 92 252 0.0 2.6 0.00 0.00 0.00 64 1012.6
20260905171118 92 252 0.0 2.6 0.00 0.00 0.00 65 1012.7
20260905171018 93 252 0.9 2.6 0.00 0.00 0.00 66 1012.7
20260905170917 92 252 1.7 2.6 0.00 0.00 0.00 65 1012.6
20260905170817 92 252 1.7 2.6 0.00 0.00 0.00 64 1012.7
20260905170717 92 138 1.7 2.6 0.00 0.00 0.00 66 1012.7
20260905170617 92 235 1.7 2.6 0.00 0.00 0.00 66 1012.7
20260905170518 92 237 0.9 2.6 0.00 0.00 0.00 66 1012.7
20260905170418 92 240 0.9 3.5 0.00 0.00 0.00 66 1012.8
20260905170318 92 164 0.9 3.5 0.00 0.00 0.00 66 1012.8
20260905170218 92 159 0.9 3.5 0.00 0.00 0.00 66 1012.9
20260905170118 92 238 0.0 3.5 0.00 0.00 0.00 67 1012.8
20260905170017 92 238 0.0 3.5 0.00 0.00 0.00 67 1012.8
20260905165917 92 238 0.9 3.5 0.00 0.00 0.00 66 1012.8
20260905165817 92 238 0.9 3.5 0.00 0.00 0.00 65 1012.8
20260905165717 92 238 0.9 3.5 0.00 0.00 0.00 66 1012.8
20260905165617 92 238 1.7 3.5 0.00 0.00 0.00 67 1012.8
20260905165517 92 282 1.7 3.5 0.00 0.00 0.00 65 1012.8
20260905165417 92 219 1.7 3.5 0.00 0.00 0.00 65 1012.9
20260905165314 92 216 1.7 3.5 0.00 0.00 0.00 67 1012.9
20260905165213 92 230 0.0 3.5 0.00 0.00 0.00 66 1012.8
20260905165112 92 173 0.0 3.5 0.00 0.00 0.00 65 1012.8
20260905165011 92 180 0.0 3.5 0.00 0.00 0.00 65 1012.8
20260905164908 92 180 0.9 3.5 0.00 0.00 0.00 64 1012.8
20260905164807 92 180 0.9 3.5 0.00 0.00 0.00 64 1012.8
20260905164706 92 175 0.9 3.5 0.00 0.00 0.00 65 1012.8
20260905164604 92 247 0.9 3.5 0.00 0.00 0.00 65 1012.8
20260905164504 92 219 1.7 4.3 0.00 0.00 0.00 65 1012.9
20260905164404 92 180 1.7 4.3 0.00 0.00 0.00 64 1012.8
20260905164302 92 173 1.7 4.3 0.00 0.00 0.00 65 1012.8
20260905164202 92 183 1.7 4.3 0.00 0.00 0.00 65 1012.8
20260905164102 92 214 1.7 4.3 0.00 0.00 0.00 64 1012.8
20260905164003 92 168 0.9 4.3 0.00 0.00 0.00 64 1012.8
20260905163902 92 157 0.9 4.3 0.00 0.00 0.00 64 1012.8
20260905163802 92 157 0.9 4.3 0.00 0.00 0.00 65 1012.8
20260905163702 92 142 1.7 4.3 0.00 0.00 0.00 65 1012.8
20260905163603 92 137 1.7 4.3 0.00 0.00 0.00 65 1012.9
20260905163502 92 100 0.9 4.3 0.00 0.00 0.00 64 1012.9
20260905163401 92 141 0.9 4.3 0.00 0.00 0.00 64 1012.9
20260905163302 91 147 0.9 4.3 0.00 0.00 0.00 65 1012.9
20260905163201 91 195 0.9 5.2 0.00 0.00 0.00 66 1012.9
20260905163102 91 148 0.9 5.2 0.00 0.00 0.00 65 1012.9
20260905163002 91 255 1.7 5.2 0.00 0.00 0.00 66 1012.9
20260905162902 91 148 1.7 5.2 0.00 0.00 0.00 66 1012.9
20260905162803 91 149 1.7 5.2 0.00 0.00 0.00 66 1013.0
20260905162702 91 149 0.9 5.2 0.00 0.00 0.00 66 1012.9
20260905162602 91 49 0.9 5.2 0.00 0.00 0.00 66 1013.0
20260905162503 91 102 0.9 5.2 0.00 0.00 0.00 66 1013.1
20260905162403 91 155 1.7 5.2 0.00 0.00 0.00 68 1013.1
20260905162305 90 151 1.7 5.2 0.00 0.00 0.00 67 1013.1
20260905162202 90 117 0.9 3.5 0.00 0.00 0.00 69 1013.1
20260905162102 90 166 0.9 2.6 0.00 0.00 0.00 68 1013.1
20260905162003 90 241 0.9 2.6 0.00 0.00 0.00 68 1013.2
20260905161902 90 203 0.9 2.6 0.00 0.00 0.00 67 1013.2
20260905161802 90 203 0.9 2.6 0.00 0.00 0.00 66 1013.2
20260905161702 90 216 0.0 2.6 0.00 0.00 0.00 67 1013.1
20260905161602 90 134 0.9 2.6 0.00 0.00 0.00 68 1013.1
20260905161502 90 137 0.9 2.6 0.00 0.00 0.00 67 1013.2
20260905161402 90 183 0.9 2.6 0.00 0.00 0.00 67 1013.2
20260905161302 90 158 0.9 2.6 0.00 0.00 0.00 67 1013.2
20260905161202 90 158 0.0 2.6 0.00 0.00 0.00 68 1013.2
20260905161102 90 220 0.0 2.6 0.00 0.00 0.00 69 1013.2
20260905161003 90 219 0.0 2.6 0.00 0.00 0.00 69 1013.2
20260905160902 90 210 0.0 2.6 0.00 0.00 0.00 69 1013.3
20260905160802 90 210 0.0 2.6 0.00 0.00 0.00 69 1013.3
20260905160703 90 209 0.9 3.5 0.00 0.00 0.00 68 1013.2
20260905160602 90 228 0.9 3.5 0.00 0.00 0.00 70 1013.2
20260905160503 90 186 0.9 4.3 0.00 0.00 0.00 69 1013.2
20260905160402 89 186 0.9 4.3 0.00 0.00 0.00 69 1013.3
20260905160302 89 202 0.9 4.3 0.00 0.00 0.00 68 1013.3
20260905160202 89 202 0.9 4.3 0.00 0.00 0.00 68 1013.3
20260905160002 89 121 0.9 4.3 0.00 0.00 0.00 69 1013.3
20260905155902 89 121 1.7 4.3 0.00 0.00 0.00 68 1013.2
20260905155802 89 73 1.7 4.3 0.00 0.00 0.00 69 1013.3
20260905155702 89 58 1.7 4.3 0.00 0.00 0.00 70 1013.3
20260905155602 89 56 1.7 4.3 0.00 0.00 0.00 70 1013.3
20260905155503 89 134 0.9 3.5 0.00 0.00 0.00 70 1013.3
20260905155402 89 224 0.9 3.5 0.00 0.00 0.00 70 1013.3
20260905155306 89 214 0.9 3.5 0.00 0.00 0.00 70 1013.2
20260905155203 89 214 1.7 3.5 0.00 0.00 0.00 69 1013.3
20260905155103 89 73 1.7 3.5 0.00 0.00 0.00 70 1013.3
20260905155002 89 59 0.9 3.5 0.00 0.00 0.00 70 1013.3
20260905154902 89 182 1.7 3.5 0.00 0.00 0.00 69 1013.3
20260905154802 89 202 1.7 3.5 0.00 0.00 0.00 69 1013.2
20260905154702 89 165 1.7 3.5 0.00 0.00 0.00 72 1013.2
20260905154602 89 231 0.9 3.5 0.00 0.00 0.00 71 1013.2
20260905154502 89 265 0.9 3.5 0.00 0.00 0.00 71 1013.2
20260905154403 89 240 0.9 3.5 0.00 0.00 0.00 71 1013.2
20260905154303 89 121 0.9 3.5 0.00 0.00 0.00 71 1013.1
20260905154201 88 121 1.7 5.2 0.00 0.00 0.00 70 1013.2
20260905154102 88 114 1.7 5.2 0.00 0.00 0.00 70 1013.1
20260905154002 88 154 0.9 5.2 0.00 0.00 0.00 71 1013.1
20260905153902 88 162 0.9 5.2 0.00 0.00 0.00 71 1013.0
20260905153801 88 204 0.9 6.1 0.00 0.00 0.00 71 1013.1
20260905153702 88 131 0.9 6.1 0.00 0.00 0.00 71 1013.1
20260905153602 88 159 1.7 6.1 0.00 0.00 0.00 71 1013.0
20260905153502 88 206 1.7 6.1 0.00 0.00 0.00 71 1013.1
20260905153402 88 161 1.7 6.1 0.00 0.00 0.00 72 1013.1
20260905153302 88 161 1.7 6.1 0.00 0.00 0.00 71 1013.0
20260905153202 88 134 0.9 6.1 0.00 0.00 0.00 72 1013.0
20260905153103 87 161 1.7 6.1 0.00 0.00 0.00 72 1013.0
20260905153001 87 159 2.6 6.1 0.00 0.00 0.00 72 1013.0
20260905152902 87 154 1.7 6.1 0.00 0.00 0.00 74 1012.9
20260905152802 87 189 1.7 3.5 0.00 0.00 0.00 74 1013.0
20260905152702 87 185 1.7 3.5 0.00 0.00 0.00 74 1013.1
20260905152602 87 161 1.7 3.5 0.00 0.00 0.00 73 1013.0
20260905152502 87 237 1.7 3.5 0.00 0.00 0.00 74 1013.1
20260905152402 87 243 0.9 3.5 0.00 0.00 0.00 74 1013.2
20260905152306 87 212 0.0 3.5 0.00 0.00 0.00 76 1013.2
20260905152202 87 213 0.0 3.5 0.00 0.00 0.00 77 1013.2
20260905152102 87 213 0.9 4.3 0.00 0.00 0.00 77 1013.2
20260905152003 87 212 0.9 4.3 0.00 0.00 0.00 75 1013.2
20260905151902 86 173 0.0 4.3 0.00 0.00 0.00 76 1013.2
20260905151801 86 166 0.0 4.3 0.00 0.00 0.00 76 1013.2
20260905151702 86 168 0.0 4.3 0.00 0.00 0.00 76 1013.3
20260905151602 86 168 0.9 4.3 0.00 0.00 0.00 77 1013.4
20260905151502 86 134 0.9 4.3 0.00 0.00 0.00 77 1013.4
20260905151402 85 62 1.7 4.3 0.00 0.00 0.00 77 1013.4
20260905151302 85 189 1.7 4.3 0.00 0.00 0.00 77 1013.6
20260905151202 85 147 1.7 4.3 0.00 0.00 0.00 77 1013.6
20260905151102 85 162 1.7 3.5 0.00 0.00 0.00 77 1013.7
20260905151002 85 125 0.9 3.5 0.00 0.00 0.00 77 1013.8
20260905150902 85 120 0.0 3.5 0.00 0.00 0.00 78 1013.7
20260905150802 85 120 0.9 3.5 0.00 0.00 0.00 77 1013.8
20260905150702 85 120 0.9 3.5 0.00 0.00 0.00 77 1013.7
20260905150602 85 118 0.9 3.5 0.00 0.00 0.00 78 1013.7
20260905150502 85 149 0.9 3.5 0.00 0.00 0.00 78 1013.7
20260905150402 84 155 0.9 3.5 0.00 0.00 0.00 78 1013.6
20260905150302 84 155 0.9 4.3 0.00 0.00 0.00 78 1013.6
20260905150203 84 180 0.9 4.3 0.00 0.00 0.00 79 1013.6
20260905150002 84 144 0.9 4.3 0.00 0.00 0.00 78 1013.6
20260905145902 84 145 0.9 4.3 0.00 0.00 0.00 79 1013.4
20260905145802 84 63 0.9 4.3 0.00 0.00 0.00 79 1013.4
20260905145702 83 172 0.9 4.3 0.00 0.00 0.00 79 1013.4
20260905145602 83 172 0.9 4.3 0.00 0.00 0.00 79 1013.6
20260905145503 83 173 1.7 4.3 0.00 0.00 0.00 79 1013.4
20260905145403 83 219 1.7 4.3 0.00 0.00 0.00 80 1013.4
20260905145302 83 176 0.9 5.2 0.00 0.00 0.00 79 1013.6
20260905145201 83 161 0.9 5.2 0.00 0.00 0.00 79 1013.6
20260905145103 83 161 1.7 5.2 0.00 0.00 0.00 79 1013.6
20260905145003 83 120 1.7 5.2 0.00 0.00 0.00 80 1013.6
20260905144901 83 192 0.9 5.2 0.00 0.00 0.00 80 1013.6
20260905144801 83 147 1.7 5.2 0.00 0.00 0.00 80 1013.6
20260905144702 83 137 1.7 5.2 0.00 0.00 0.00 80 1013.6
20260905144602 82 190 0.9 5.2 0.00 0.00 0.00 80 1013.6
20260905144502 82 159 1.7 5.2 0.00 0.00 0.00 80 1013.4
20260905144403 82 192 1.7 5.2 0.00 0.00 0.00 80 1013.6
20260905144302 82 141 1.7 4.3 0.00 0.00 0.00 80 1013.6
20260905144202 82 224 1.7 5.2 0.00 0.00 0.00 80 1013.6
20260905144103 82 131 1.7 5.2 0.00 0.00 0.00 80 1013.6
20260905144002 82 128 0.9 5.2 0.00 0.00 0.00 80 1013.6
20260905143902 82 97 0.0 5.2 0.00 0.00 0.00 80 1013.4
20260905143802 82 54 0.9 5.2 0.00 0.00 0.00 80 1013.4
20260905143702 82 173 0.9 5.2 0.00 0.00 0.00 80 1013.4
20260905143602 82 172 1.7 5.2 0.00 0.00 0.00 80 1013.3
20260905143502 82 171 0.9 5.2 0.00 0.00 0.00 80 1013.3
20260905143402 82 180 1.7 5.2 0.00 0.00 0.00 80 1013.3
20260905143302 82 202 1.7 5.2 0.00 0.00 0.00 79 1013.3
20260905143203 82 195 0.9 3.5 0.00 0.00 0.00 79 1013.2
20260905143102 82 221 0.0 2.6 0.00 0.00 0.00 79 1013.3
20260905143002 82 231 0.0 4.3 0.00 0.00 0.00 79 1013.2
20260905142903 81 231 0.0 4.3 0.00 0.00 0.00 79 1013.3
20260905142802 81 231 0.0 4.3 0.00 0.00 0.00 79 1013.3
20260905142702 81 231 0.0 4.3 0.00 0.00 0.00 79 1013.3
20260905142602 81 231 0.0 4.3 0.00 0.00 0.00 79 1013.3
20260905142502 81 231 0.9 4.3 0.00 0.00 0.00 79 1013.3
20260905142403 81 238 0.9 4.3 0.00 0.00 0.00 79 1013.3
20260905142305 81 223 0.9 4.3 0.00 0.00 0.00 79 1013.3
20260905142202 81 224 0.9 4.3 0.00 0.00 0.00 79 1013.4
20260905142102 81 168 0.9 4.3 0.00 0.00 0.00 79 1013.3
20260905142003 81 54 0.9 4.3 0.00 0.00 0.00 79 1013.3
20260905141902 81 168 0.9 4.3 0.00 0.00 0.00 79 1013.3
20260905141803 80 142 1.7 4.3 0.00 0.00 0.00 78 1013.3
20260905141658 80 226 1.7 4.3 0.00 0.00 0.00 78 1013.3
20260905141554 80 176 0.9 4.3 0.00 0.00 0.00 78 1013.3
20260905141453 80 125 0.9 5.2 0.00 0.00 0.00 78 1013.4
20260905141352 80 186 0.0 5.2 0.00 0.00 0.00 77 1013.3
20260905141251 80 188 0.0 5.2 0.00 0.00 0.00 78 1013.4
20260905141148 80 188 0.9 5.2 0.00 0.00 0.00 78 1013.4
20260905141047 80 179 0.9 5.2 0.00 0.00 0.00 77 1013.6
20260905140946 80 127 0.9 5.2 0.00 0.00 0.00 77 1013.4
20260905140844 80 179 0.0 5.2 0.00 0.00 0.00 77 1013.6
20260905140742 80 90 0.0 6.1 0.00 0.00 0.00 77 1013.6
20260905140641 80 90 0.9 6.1 0.00 0.00 0.00 77 1013.7
20260905140540 80 58 0.0 6.1 0.00 0.00 0.00 76 1013.7
20260905140438 80 131 0.0 6.1 0.00 0.00 0.00 76 1013.7
20260905140336 80 80 0.0 6.1 0.00 0.00 0.00 76 1013.8
20260905140235 79 73 0.0 6.1 0.00 0.00 0.00 76 1013.8
20260905140134 79 73 0.0 6.1 0.00 0.00 0.00 76 1013.7
20260905140032 79 73 0.0 6.1 0.00 0.00 0.00 76 1013.7
20260905135931 79 73 1.7 6.1 0.00 0.00 0.00 76 1013.7
20260905135831 79 73 1.7 6.1 0.00 0.00 0.00 76 1013.7
20260905135732 79 85 0.0 5.2 0.00 0.00 0.00 76 1013.7
20260905135632 79 85 0.0 5.2 0.00 0.00 0.00 76 1013.7
20260905135530 79 85 0.0 5.2 0.00 0.00 0.00 76 1013.6
20260905135431 79 85 0.0 5.2 0.00 0.00 0.00 76 1013.6
20260905135329 79 86 0.0 5.2 0.00 0.00 0.00 76 1013.6
20260905135228 79 85 0.0 5.2 0.00 0.00 0.00 76 1013.6
20260905135126 79 85 0.9 5.2 0.00 0.00 0.00 76 1013.6
20260905135024 79 86 1.7 5.2 0.00 0.00 0.00 76 1013.6
20260905134923 79 68 2.6 5.2 0.00 0.00 0.00 76 1013.6
20260905134822 79 39 0.9 5.2 0.00 0.00 0.00 75 1013.4
20260905134720 79 93 0.0 3.5 0.00 0.00 0.00 76 1013.6
20260905134619 79 90 0.0 3.5 0.00 0.00 0.00 76 1013.4
20260905134517 79 90 0.0 3.5 0.00 0.00 0.00 76 1013.4
20260905134416 79 258 0.0 0.0 0.00 0.00 0.00 76 1013.3
20260905134315 79 258 0.0 0.0 0.00 0.00 0.00 76 1013.3
20260905134213 79 258 0.0 0.0 0.00 0.00 0.00 76 1013.2
20260905134113 79 258 0.0 0.0 0.00 0.00 0.00 76 1013.1
20260905134013 79 258 0.0 0.0 0.00 0.00 0.00 76 1013.1
20260905133913 79 258 0.0 0.0 0.00 0.00 0.00 76 1013.1
20260905133813 79 258 0.0 0.0 0.00 0.00 0.00 76 1013.1
20260905133713 79 258 0.0 0.0 0.00 0.00 0.00 75 1013.0
20260905133612 79 258 0.0 0.0 0.00 0.00 0.00 75 1013.1
20260905133510 79 258 0.0 0.0 0.00 0.00 0.00 75 1013.0
20260905133408 79 258 0.0 0.0 0.00 0.00 0.00 75 1013.0
20260905133307 79 258 0.0 0.0 0.00 0.00 0.00 75 1013.0
20260905133202 79 258 0.0 0.0 0.00 0.00 0.00 75 1013.0
20260905133102 79 258 0.0 0.0 0.00 0.00 0.00 75 1013.0
20260905133002 79 258 0.0 0.0 0.00 0.00 0.00 74 1013.0
20260905132902 79 258 0.0 0.0 0.00 0.00 0.00 74 1013.0
20260905132802 79 258 0.0 0.0 0.00 0.00 0.00 74 1013.0
20260905132702 79 258 0.0 0.0 0.00 0.00 0.00 74 1013.1
20260905132603 79 258 0.0 0.0 0.00 0.00 0.00 73 1013.1
20260905132502 79 258 0.0 0.0 0.00 0.00 0.00 73 1013.1
20260905132403 79 258 0.0 0.0 0.00 0.00 0.00 73 1013.1
20260905132305 79 258 0.0 0.0 0.00 0.00 0.00 73 1013.0
20260905132202 78 258 0.0 0.0 0.00 0.00 0.00 73 1013.0
20260905132102 78 258 0.0 0.0 0.00 0.00 0.00 73 1013.0
20260905132002 78 258 0.0 0.0 0.00 0.00 0.00 73 1013.0
20260905131902 78 258 0.0 0.0 0.00 0.00 0.00 73 1013.1
20260905131802 78 258 0.0 0.0 0.00 0.00 0.00 73 1013.0
20260905131702 78 258 0.0 0.0 0.00 0.00 0.00 73 1013.1
20260905131602 78 258 0.0 0.0 0.00 0.00 0.00 73 1013.1
20260905131502 78 258 0.0 0.0 0.00 0.00 0.00 73 1013.1
20260905131402 78 258 0.0 0.0 0.00 0.00 0.00 73 1013.1
20260905131302 78 258 0.0 0.0 0.00 0.00 0.00 73 1013.0
20260905131202 78 258 0.0 0.0 0.00 0.00 0.00 73 1013.1
20260905131102 78 258 0.0 0.0 0.00 0.00 0.00 73 1013.1
20260905131002 78 258 0.0 0.0 0.00 0.00 0.00 73 1013.1
20260905130902 78 258 0.0 0.0 0.00 0.00 0.00 73 1013.0
20260905130802 78 258 0.0 0.0 0.00 0.00 0.00 72 1013.0
20260905130703 78 258 0.0 0.0 0.00 0.00 0.00 72 1013.0
20260905130602 78 258 0.0 0.0 0.00 0.00 0.00 72 1013.1
20260905130502 78 258 0.0 0.0 0.00 0.00 0.00 72 1013.0
20260905130402 78 258 0.0 0.0 0.00 0.00 0.00 72 1013.0
20260905130303 78 258 0.0 0.0 0.00 0.00 0.00 71 1013.0
20260905130202 78 258 0.0 0.0 0.00 0.00 0.00 71 1012.9
20260905130002 78 258 0.0 0.0 0.00 0.00 0.00 70 1013.0
20260905125902 77 258 0.0 0.0 0.00 0.00 0.00 70 1013.0
20260905125802 77 258 0.0 0.0 0.00 0.00 0.00 69 1013.0
20260905125702 77 258 0.0 0.0 0.00 0.00 0.00 69 1013.0
20260905125602 77 258 0.0 0.0 0.00 0.00 0.00 69 1013.0
20260905125503 77 258 0.0 0.0 0.00 0.00 0.00 69 1013.0
20260905125402 77 258 0.0 0.0 0.00 0.00 0.00 69 1013.1
20260905125305 77 258 0.0 0.0 0.00 0.00 0.00 69 1013.0
20260905125202 76 258 0.0 0.0 0.00 0.00 0.00 69 1013.1
20260905125103 76 258 0.0 0.0 0.00 0.00 0.00 69 1013.0
20260905125003 76 258 0.0 0.0 0.00 0.00 0.00 69 1013.0
20260905124902 76 258 0.0 0.0 0.00 0.00 0.00 69 1013.0
20260905124802 76 258 0.0 0.0 0.00 0.00 0.00 69 1013.0
20260905124702 76 258 0.0 0.0 0.00 0.00 0.00 69 1013.0
20260905124602 76 258 0.0 0.0 0.00 0.00 0.00 69 1013.0
20260905124504 76 258 0.0 0.0 0.00 0.00 0.00 69 1012.9
20260905124404 76 258 0.0 0.0 0.00 0.00 0.00 69 1012.9
20260905124303 76 258 0.0 0.0 0.00 0.00 0.00 69 1012.9
20260905124202 76 258 0.0 0.0 0.00 0.00 0.00 69 1012.8
20260905124102 75 258 0.0 0.0 0.00 0.00 0.00 69 1012.8
20260905124003 75 258 0.0 0.0 0.00 0.00 0.00 69 1012.8
20260905123903 75 258 0.0 0.0 0.00 0.00 0.00 69 1012.8
20260905123801 75 258 0.0 0.0 0.00 0.00 0.00 69 1012.8
20260905123702 75 258 0.0 0.0 0.00 0.00 0.00 69 1012.8
20260905123602 75 258 0.0 0.0 0.00 0.00 0.00 69 1012.8
20260905123502 75 258 0.0 0.0 0.00 0.00 0.00 69 1012.8
20260905123402 75 258 0.0 0.0 0.00 0.00 0.00 70 1012.8
20260905123302 74 258 0.0 0.0 0.00 0.00 0.00 70 1012.8
20260905123202 74 258 0.0 0.0 0.00 0.00 0.00 70 1012.8
20260905123103 74 258 0.0 0.0 0.00 0.00 0.00 70 1012.9
20260905123003 74 258 0.0 0.0 0.00 0.00 0.00 70 1012.9
20260905122902 74 258 0.0 0.0 0.00 0.00 0.00 70 1012.9
20260905122802 74 258 0.0 0.0 0.00 0.00 0.00 70 1012.9
20260905122702 74 258 0.0 0.0 0.00 0.00 0.00 70 1012.9
20260905122603 74 258 0.0 0.0 0.00 0.00 0.00 70 1012.9
20260905122502 74 258 0.0 0.0 0.00 0.00 0.00 70 1012.9
20260905122402 74 258 0.0 0.0 0.00 0.00 0.00 70 1012.9
20260905122306 74 258 0.0 0.0 0.00 0.00 0.00 70 1012.9
20260905122202 74 258 0.0 0.0 0.00 0.00 0.00 70 1012.9
20260905122102 74 258 0.0 0.0 0.00 0.00 0.00 70 1012.9
20260905122002 74 258 0.0 0.0 0.00 0.00 0.00 70 1012.9
20260905121902 74 258 0.0 0.0 0.00 0.00 0.00 70 1012.9
20260905121802 74 258 0.0 0.0 0.00 0.00 0.00 70 1012.9
20260905121702 74 258 0.0 0.0 0.00 0.00 0.00 70 1012.9
20260905121602 74 258 0.0 0.0 0.00 0.00 0.00 70 1012.9
20260905121502 74 258 0.0 0.0 0.00 0.00 0.00 70 1012.9
20260905121402 74 258 0.0 0.0 0.00 0.00 0.00 70 1012.9
20260905121302 74 258 0.0 0.0 0.00 0.00 0.00 70 1012.9
20260905121202 74 258 0.0 0.0 0.00 0.00 0.00 70 1012.8
20260905121102 74 258 0.0 0.0 0.00 0.00 0.00 70 1012.8
20260905121002 74 258 0.0 0.0 0.00 0.00 0.00 70 1012.9
20260905120902 74 258 0.0 0.0 0.00 0.00 0.00 70 1012.9
20260905120802 74 258 0.0 0.0 0.00 0.00 0.00 70 1012.9
20260905120702 74 258 0.0 0.0 0.00 0.00 0.00 70 1012.8
20260905120602 74 258 0.0 0.0 0.00 0.00 0.00 70 1012.8
20260905120503 74 258 0.0 0.0 0.00 0.00 0.00 70 1012.8
20260905120403 74 258 0.0 0.0 0.00 0.00 0.00 70 1012.8
20260905120302 74 258 0.0 0.0 0.00 0.00 0.00 70 1012.8
20260905120203 74 258 0.0 0.0 0.00 0.00 0.00 70 1012.8
20260905120004 74 258 0.0 0.0 0.00 0.00 0.00 70 1012.8
20260905115901 74 258 0.0 0.0 0.00 0.00 0.00 70 1012.8
20260905115802 74 258 0.0 0.0 0.00 0.00 0.00 70 1012.8
20260905115702 74 258 0.0 0.0 0.00 0.00 0.00 70 1012.8
20260905115602 74 258 0.0 0.0 0.00 0.00 0.00 70 1012.9
20260905115502 74 258 0.0 0.0 0.00 0.00 0.00 70 1012.8
20260905115402 74 258 0.0 0.0 0.00 0.00 0.00 70 1012.8
20260905115305 74 258 0.0 0.0 0.00 0.00 0.00 70 1012.8
20260905115202 74 258 0.0 0.0 0.00 0.00 0.00 70 1012.8
20260905115103 74 258 0.0 0.0 0.00 0.00 0.00 70 1012.9
20260905115003 74 258 0.0 0.0 0.00 0.00 0.00 70 1012.9
20260905114901 74 258 0.0 0.0 0.00 0.00 0.00 70 1012.8
20260905114803 74 258 0.0 0.0 0.00 0.00 0.00 70 1012.8
20260905114703 74 258 0.0 0.0 0.00 0.00 0.00 70 1012.8
20260905114603 74 258 0.0 0.0 0.00 0.00 0.00 70 1012.8
20260905114503 74 258 0.0 0.0 0.00 0.00 0.00 70 1012.8
20260905114404 74 258 0.0 0.0 0.00 0.00 0.00 70 1012.7
20260905114302 74 258 0.0 0.0 0.00 0.00 0.00 70 1012.7
20260905114202 74 258 0.0 0.0 0.00 0.00 0.00 70 1012.6
20260905114102 74 258 0.0 0.0 0.00 0.00 0.00 70 1012.7
20260905114003 74 258 0.0 0.0 0.00 0.00 0.00 70 1012.7
20260905113902 74 258 0.0 0.0 0.00 0.00 0.00 70 1012.6
20260905113802 74 258 0.0 0.0 0.00 0.00 0.00 70 1012.6
20260905113703 74 258 0.0 0.0 0.00 0.00 0.00 70 1012.6
20260905113601 74 258 0.0 0.0 0.00 0.00 0.00 70 1012.7
20260905113502 74 258 0.0 0.0 0.00 0.00 0.00 70 1012.7
20260905113402 74 258 0.0 0.0 0.00 0.00 0.00 70 1012.7
20260905113302 74 258 0.0 0.0 0.00 0.00 0.00 70 1012.7
20260905113202 74 258 0.0 0.0 0.00 0.00 0.00 70 1012.7
20260905113102 74 258 0.0 0.0 0.00 0.00 0.00 70 1012.7
20260905113003 74 258 0.0 0.0 0.00 0.00 0.00 70 1012.7
20260905112902 74 258 0.0 0.0 0.00 0.00 0.00 70 1012.7
20260905112802 74 258 0.0 0.0 0.00 0.00 0.00 70 1012.8
20260905112702 74 258 0.0 0.0 0.00 0.00 0.00 70 1012.7
20260905112602 74 258 0.0 0.0 0.00 0.00 0.00 70 1012.8
20260905112503 74 258 0.0 0.0 0.00 0.00 0.00 70 1012.8
20260905112402 74 258 0.0 0.0 0.00 0.00 0.00 70 1012.8
20260905112305 74 258 0.0 0.0 0.00 0.00 0.00 70 1012.7
20260905112202 74 258 0.0 0.0 0.00 0.00 0.00 70 1012.7
20260905112103 74 258 0.0 0.0 0.00 0.00 0.00 70 1012.7
20260905112002 74 258 0.0 0.0 0.00 0.00 0.00 70 1012.7
20260905111902 74 258 0.0 0.0 0.00 0.00 0.00 70 1012.7
20260905111803 74 258 0.0 0.0 0.00 0.00 0.00 70 1012.8
20260905111702 74 258 0.0 0.0 0.00 0.00 0.00 70 1012.8
20260905111601 74 258 0.0 0.0 0.00 0.00 0.00 70 1012.8
20260905111500 74 258 0.0 0.0 0.00 0.00 0.00 70 1012.7
20260905111359 74 258 0.0 0.0 0.00 0.00 0.00 70 1012.7
20260905111256 74 258 0.0 0.0 0.00 0.00 0.00 70 1012.7
20260905111155 74 258 0.0 0.0 0.00 0.00 0.00 70 1012.7
20260905111054 74 258 0.0 0.0 0.00 0.00 0.00 70 1012.7
20260905110947 74 258 0.0 0.0 0.00 0.00 0.00 70 1012.7
20260905110845 74 258 0.0 0.0 0.00 0.00 0.00 70 1012.6
20260905110738 74 258 0.0 0.0 0.00 0.00 0.00 70 1012.6
20260905110635 74 258 0.0 0.0 0.00 0.00 0.00 70 1012.6
20260905110533 74 258 0.0 0.0 0.00 0.00 0.00 70 1012.6
20260905110432 74 258 0.0 0.0 0.00 0.00 0.00 70 1012.6
20260905110331 74 258 0.0 0.0 0.00 0.00 0.00 70 1012.6
20260905110231 74 258 0.0 0.0 0.00 0.00 0.00 70 1012.6
20260905110131 74 258 0.0 0.0 0.00 0.00 0.00 70 1012.6
20260905110028 74 258 0.0 0.0 0.00 0.00 0.00 70 1012.6
20260905105928 74 258 0.0 0.0 0.00 0.00 0.00 70 1012.6
20260905105826 74 258 0.0 0.0 0.00 0.00 0.00 70 1012.6
20260905105725 74 258 0.0 0.0 0.00 0.00 0.00 70 1012.6
20260905105623 74 258 0.0 0.0 0.00 0.00 0.00 70 1012.6
20260905105521 74 258 0.0 0.0 0.00 0.00 0.00 70 1012.6
20260905105417 74 258 0.0 0.0 0.00 0.00 0.00 71 1012.6
20260905105315 74 258 0.0 0.0 0.00 0.00 0.00 70 1012.6
20260905105214 74 258 0.0 0.0 0.00 0.00 0.00 71 1012.6
20260905105110 74 258 0.0 0.0 0.00 0.00 0.00 71 1012.5
20260905105008 74 258 0.0 0.0 0.00 0.00 0.00 71 1012.5
20260905104908 74 258 0.0 0.0 0.00 0.00 0.00 71 1012.6
20260905104808 74 258 0.0 0.0 0.00 0.00 0.00 70 1012.5
20260905104708 74 258 0.0 0.0 0.00 0.00 0.00 70 1012.5
20260905104608 74 258 0.0 0.0 0.00 0.00 0.00 70 1012.5
20260905104508 74 258 0.0 0.0 0.00 0.00 0.00 70 1012.5
20260905104408 74 258 0.0 0.0 0.00 0.00 0.00 70 1012.5
20260905104309 74 258 0.0 0.0 0.00 0.00 0.00 70 1012.5
20260905104209 74 258 0.0 0.0 0.00 0.00 0.00 70 1012.5
20260905104108 74 258 0.0 0.0 0.00 0.00 0.00 70 1012.5
20260905104008 74 258 0.0 0.0 0.00 0.00 0.00 70 1012.5
20260905103908 74 258 0.0 0.0 0.00 0.00 0.00 71 1012.6
20260905103808 74 258 0.0 0.0 0.00 0.00 0.00 71 1012.5
20260905103708 74 258 0.0 0.0 0.00 0.00 0.00 71 1012.5
20260905103608 74 258 0.0 0.0 0.00 0.00 0.00 71 1012.6
20260905103508 74 258 0.0 0.0 0.00 0.00 0.00 71 1012.5
20260905103408 74 258 0.0 0.0 0.00 0.00 0.00 71 1012.6
20260905103309 74 258 0.0 0.0 0.00 0.00 0.00 71 1012.5
20260905103208 74 258 0.0 0.0 0.00 0.00 0.00 71 1012.6
20260905103108 74 258 0.0 0.9 0.00 0.00 0.00 71 1012.6
20260905103008 74 258 0.0 0.9 0.00 0.00 0.00 71 1012.6
20260905102908 74 258 0.0 0.9 0.00 0.00 0.00 70 1012.6
20260905102808 74 258 0.0 0.9 0.00 0.00 0.00 70 1012.6
20260905102708 74 258 0.0 0.9 0.00 0.00 0.00 70 1012.6
20260905102608 74 258 0.0 0.9 0.00 0.00 0.00 70 1012.5
20260905102508 74 258 0.0 0.9 0.00 0.00 0.00 70 1012.5
20260905102408 74 258 0.0 0.9 0.00 0.00 0.00 71 1012.5
20260905102308 74 258 0.0 1.7 0.00 0.00 0.00 71 1012.5
20260905102208 74 258 0.9 1.7 0.00 0.00 0.00 71 1012.5
20260905102108 74 258 0.0 1.7 0.00 0.00 0.00 71 1012.5
20260905102008 74 258 0.0 1.7 0.00 0.00 0.00 71 1012.6
20260905101907 74 258 0.0 1.7 0.00 0.00 0.00 71 1012.6
20260905101808 74 258 0.0 1.7 0.00 0.00 0.00 71 1012.5
20260905101708 74 258 0.0 1.7 0.00 0.00 0.00 71 1012.5
20260905101608 74 258 0.0 1.7 0.00 0.00 0.00 70 1012.5
20260905101508 74 258 0.9 1.7 0.00 0.00 0.00 70 1012.6
20260905101408 74 258 0.9 1.7 0.00 0.00 0.00 70 1012.5
20260905101308 74 258 0.9 0.9 0.00 0.00 0.00 70 1012.6
20260905101208 74 258 0.0 0.9 0.00 0.00 0.00 70 1012.6
20260905101108 74 258 0.0 0.9 0.00 0.00 0.00 71 1012.6
20260905101008 74 258 0.0 0.9 0.00 0.00 0.00 71 1012.6
20260905100907 74 258 0.0 1.7 0.00 0.00 0.00 71 1012.5
20260905100808 74 258 0.0 1.7 0.00 0.00 0.00 71 1012.6
20260905100708 74 258 0.0 1.7 0.00 0.00 0.00 71 1012.6
20260905100606 74 258 0.0 1.7 0.00 0.00 0.00 71 1012.5
20260905100507 74 258 0.0 1.7 0.00 0.00 0.00 71 1012.5
20260905100407 74 258 0.0 1.7 0.00 0.00 0.00 71 1012.5
20260905100307 74 258 0.0 1.7 0.00 0.00 0.00 71 1012.6
20260905100207 74 258 0.0 1.7 0.00 0.00 0.00 71 1012.5
20260905100107 74 258 0.0 1.7 0.00 0.00 0.00 71 1012.5
20260905100007 74 258 0.9 1.7 0.00 0.00 0.00 71 1012.5
20260905095908 74 258 0.9 1.7 0.00 0.00 0.00 71 1012.4
20260905095808 74 258 0.9 1.7 0.00 0.00 0.00 71 1012.4
20260905095708 74 258 0.9 1.7 0.00 0.00 0.00 71 1012.5
20260905095607 74 258 0.0 1.7 0.00 0.00 0.00 71 1012.5
20260905095508 74 258 0.0 0.0 0.00 0.00 0.00 71 1012.4
20260905095407 74 258 0.0 0.0 0.00 0.00 0.00 71 1012.5
20260905095307 74 258 0.0 0.0 0.00 0.00 0.00 71 1012.4
20260905095207 74 258 0.0 0.0 0.00 0.00 0.00 71 1012.5
20260905095107 74 258 0.0 0.0 0.00 0.00 0.00 71 1012.5
20260905095007 74 258 0.0 0.0 0.00 0.00 0.00 71 1012.4
20260905094907 74 258 0.0 0.0 0.00 0.00 0.00 71 1012.4
20260905094807 74 258 0.0 0.0 0.00 0.00 0.00 71 1012.5
20260905094707 74 258 0.0 0.0 0.00 0.00 0.00 71 1012.5
20260905094607 74 258 0.0 0.0 0.00 0.00 0.00 71 1012.4
20260905094508 74 258 0.0 0.0 0.00 0.00 0.00 71 1012.4
20260905094408 74 258 0.0 0.0 0.00 0.00 0.00 71 1012.4
20260905094307 74 258 0.0 0.0 0.00 0.00 0.00 71 1012.4
20260905094207 74 258 0.0 0.0 0.00 0.00 0.00 71 1012.4
20260905094107 74 258 0.0 0.0 0.00 0.00 0.00 71 1012.4
20260905094007 74 258 0.0 0.0 0.00 0.00 0.00 71 1012.5
20260905093907 74 258 0.0 0.0 0.00 0.00 0.00 71 1012.5
20260905093807 74 258 0.0 0.0 0.00 0.00 0.00 71 1012.5
20260905093707 74 258 0.0 0.0 0.00 0.00 0.00 71 1012.5
20260905093607 74 258 0.0 0.0 0.00 0.00 0.00 71 1012.5
20260905093506 74 258 0.0 0.0 0.00 0.00 0.00 71 1012.5
20260905093407 74 258 0.0 0.0 0.00 0.00 0.00 71 1012.5
20260905093307 74 258 0.0 0.0 0.00 0.00 0.00 71 1012.4
20260905093207 74 258 0.0 0.0 0.00 0.00 0.00 71 1012.4
20260905093107 74 258 0.0 0.0 0.00 0.00 0.00 71 1012.4
20260905093007 74 258 0.0 0.0 0.00 0.00 0.00 71 1012.4
20260905092907 74 258 0.0 0.0 0.00 0.00 0.00 71 1012.3
20260905092807 74 258 0.0 0.0 0.00 0.00 0.00 71 1012.4
20260905092707 74 258 0.0 0.0 0.00 0.00 0.00 71 1012.3
20260905092607 74 258 0.0 0.0 0.00 0.00 0.00 71 1012.3
20260905092507 75 258 0.0 0.0 0.00 0.00 0.00 71 1012.4
20260905092406 75 258 0.0 0.0 0.00 0.00 0.00 71 1012.3
20260905092306 75 258 0.0 0.0 0.00 0.00 0.00 71 1012.4
20260905092207 75 258 0.0 0.0 0.00 0.00 0.00 71 1012.4
20260905092107 75 258 0.0 0.0 0.00 0.00 0.00 71 1012.3
20260905092006 75 258 0.0 0.0 0.00 0.00 0.00 71 1012.3
20260905091906 75 258 0.0 0.0 0.00 0.00 0.00 71 1012.2
20260905091806 75 258 0.0 0.0 0.00 0.00 0.00 71 1012.3
20260905091706 75 258 0.0 0.0 0.00 0.00 0.00 71 1012.3
20260905091606 75 258 0.0 0.0 0.00 0.00 0.00 71 1012.4
20260905091506 75 258 0.0 0.0 0.00 0.00 0.00 71 1012.3
20260905091406 75 258 0.0 0.0 0.00 0.00 0.00 71 1012.3
20260905091306 75 258 0.0 0.0 0.00 0.00 0.00 71 1012.2
20260905091206 75 258 0.0 0.0 0.00 0.00 0.00 71 1012.2
20260905091106 75 258 0.0 0.0 0.00 0.00 0.00 71 1012.2
20260905091006 75 258 0.0 0.0 0.00 0.00 0.00 71 1012.2
20260905090906 75 258 0.0 0.0 0.00 0.00 0.00 71 1012.2
20260905090806 75 258 0.0 0.0 0.00 0.00 0.00 71 1012.2
20260905090706 75 258 0.0 0.0 0.00 0.00 0.00 70 1012.2
20260905090606 75 258 0.0 0.0 0.00 0.00 0.00 70 1012.2
20260905090506 75 258 0.0 0.0 0.00 0.00 0.00 70 1012.2
20260905090406 75 258 0.0 0.9 0.00 0.00 0.00 70 1012.1
20260905090306 75 258 0.0 0.9 0.00 0.00 0.00 70 1012.2
20260905090206 75 258 0.0 0.9 0.00 0.00 0.00 70 1012.1
20260905090107 75 258 0.0 0.9 0.00 0.00 0.00 70 1012.2
20260905090006 75 258 0.0 0.9 0.00 0.00 0.00 70 1012.2
20260905085906 75 258 0.0 0.9 0.00 0.00 0.00 70 1012.1
20260905085806 75 258 0.0 0.9 0.00 0.00 0.00 70 1012.1
20260905085706 75 258 0.0 0.9 0.00 0.00 0.00 70 1012.1
20260905085606 75 258 0.0 0.9 0.00 0.00 0.00 70 1012.1
20260905085506 75 258 0.0 0.9 0.00 0.00 0.00 70 1012.1
20260905085406 75 258 0.0 0.9 0.00 0.00 0.00 70 1012.1
20260905085306 75 258 0.0 1.7 0.00 0.00 0.00 70 1012.1
20260905085206 75 258 0.0 1.7 0.00 0.00 0.00 70 1012.1
20260905085106 75 258 0.0 3.5 0.00 0.00 0.00 70 1012.0
20260905085006 75 258 0.0 3.5 0.00 0.00 0.00 70 1012.1
20260905084906 75 258 0.0 3.5 0.00 0.00 0.00 70 1012.1
20260905084805 75 258 0.0 3.5 0.00 0.00 0.00 70 1012.0
20260905084705 75 258 0.0 3.5 0.00 0.00 0.00 70 1012.1
20260905084605 75 258 0.0 3.5 0.00 0.00 0.00 70 1012.1
20260905084506 75 258 0.9 3.5 0.00 0.00 0.00 70 1012.0
20260905084406 75 258 0.0 3.5 0.00 0.00 0.00 70 1012.1
20260905084305 75 258 0.9 3.5 0.00 0.00 0.00 70 1012.0
20260905084205 75 258 0.9 3.5 0.00 0.00 0.00 70 1012.1
20260905084104 75 258 0.0 0.9 0.00 0.00 0.00 70 1012.1
20260905084005 75 258 0.0 0.9 0.00 0.00 0.00 70 1012.1
20260905083905 75 258 0.0 0.9 0.00 0.00 0.00 70 1012.0
20260905083805 75 258 0.0 0.9 0.00 0.00 0.00 70 1012.1
20260905083705 75 258 0.0 0.9 0.00 0.00 0.00 70 1012.0
20260905083605 75 258 0.0 0.9 0.00 0.00 0.00 70 1012.1
20260905083505 75 258 0.0 0.9 0.00 0.00 0.00 70 1012.1
20260905083405 75 258 0.0 0.9 0.00 0.00 0.00 70 1012.1
20260905083306 75 258 0.0 0.9 0.00 0.00 0.00 70 1012.1
20260905083206 75 258 0.0 0.9 0.00 0.00 0.00 70 1012.0
20260905083106 75 258 0.0 0.9 0.00 0.00 0.00 70 1012.1
20260905083006 75 258 0.0 1.7 0.00 0.00 0.00 70 1012.1
20260905082906 75 258 0.0 1.7 0.00 0.00 0.00 70 1012.1
20260905082805 75 258 0.0 1.7 0.00 0.00 0.00 70 1012.1
20260905082705 75 258 0.0 1.7 0.00 0.00 0.00 70 1012.0
20260905082605 75 258 0.0 1.7 0.00 0.00 0.00 70 1012.0
20260905082505 75 258 0.0 1.7 0.00 0.00 0.00 70 1012.0
20260905082405 75 258 0.0 1.7 0.00 0.00 0.00 70 1012.1
20260905082307 75 258 0.0 1.7 0.00 0.00 0.00 70 1012.1
20260905082206 75 258 0.0 1.7 0.00 0.00 0.00 70 1012.1
20260905082105 75 258 0.0 1.7 0.00 0.00 0.00 70 1012.0
20260905082005 75 258 0.0 0.0 0.00 0.00 0.00 70 1012.0
20260905081905 75 258 0.0 0.0 0.00 0.00 0.00 70 1012.1
20260905081805 75 258 0.0 0.0 0.00 0.00 0.00 70 1012.0
20260905081705 75 258 0.0 0.0 0.00 0.00 0.00 70 1012.1
20260905081605 75 258 0.0 0.0 0.00 0.00 0.00 70 1012.0
20260905081505 75 258 0.0 0.0 0.00 0.00 0.00 70 1012.0
20260905081405 75 258 0.0 0.0 0.00 0.00 0.00 70 1012.0
20260905081305 75 258 0.0 0.0 0.00 0.00 0.00 70 1012.1
20260905081205 75 258 0.0 0.0 0.00 0.00 0.00 70 1012.1
20260905081105 75 258 0.0 0.0 0.00 0.00 0.00 70 1012.0
20260905081004 75 258 0.0 0.0 0.00 0.00 0.00 70 1012.0
20260905080904 75 258 0.0 0.0 0.00 0.00 0.00 70 1012.0
20260905080806 75 258 0.0 0.0 0.00 0.00 0.00 70 1012.0
20260905080705 75 258 0.0 0.0 0.00 0.00 0.00 70 1011.9
20260905080605 75 258 0.0 0.0 0.00 0.00 0.00 70 1011.9
20260905080505 75 258 0.0 0.0 0.00 0.00 0.00 70 1012.0
20260905080405 75 258 0.0 0.0 0.00 0.00 0.00 70 1011.9
20260905080305 75 258 0.0 0.0 0.00 0.00 0.00 70 1011.9
20260905080204 75 258 0.0 0.0 0.00 0.00 0.00 70 1011.9
20260905080105 75 258 0.0 0.0 0.00 0.00 0.00 70 1011.8
20260905080004 75 258 0.0 0.0 0.00 0.00 0.00 70 1011.9
20260905075905 75 258 0.0 0.0 0.00 0.00 0.00 70 1011.8
20260905075805 75 258 0.0 0.0 0.00 0.00 0.00 71 1011.9
20260905075705 75 258 0.0 0.0 0.00 0.00 0.00 71 1011.8
20260905075605 75 258 0.0 0.0 0.00 0.00 0.00 71 1011.8
20260905075505 75 258 0.0 0.0 0.00 0.00 0.00 71 1011.9
20260905075405 75 258 0.0 0.0 0.00 0.00 0.00 71 1011.9
20260905075306 75 258 0.0 0.0 0.00 0.00 0.00 71 1011.9
20260905075205 75 258 0.0 0.0 0.00 0.00 0.00 71 1011.9
20260905075104 75 258 0.0 0.0 0.00 0.00 0.00 71 1011.9
20260905075004 75 258 0.0 0.0 0.00 0.00 0.00 71 1011.9
20260905074904 75 258 0.0 0.0 0.00 0.00 0.00 71 1011.9
20260905074804 75 258 0.0 0.0 0.00 0.00 0.00 71 1011.9
20260905074704 75 258 0.0 0.0 0.00 0.00 0.00 71 1012.1
20260905074604 75 258 0.0 0.0 0.00 0.00 0.00 71 1011.9
20260905074504 75 258 0.0 0.0 0.00 0.00 0.00 71 1012.0
20260905074405 75 258 0.0 0.0 0.00 0.00 0.00 71 1011.9
20260905074304 75 258 0.0 0.0 0.00 0.00 0.00 71 1012.0
20260905074204 75 258 0.0 0.0 0.00 0.00 0.00 71 1012.0
20260905074104 75 258 0.0 0.0 0.00 0.00 0.00 71 1012.0
20260905074004 75 258 0.0 0.0 0.00 0.00 0.00 71 1012.0
20260905073904 75 258 0.0 0.0 0.00 0.00 0.00 71 1012.0
20260905073804 75 258 0.0 0.0 0.00 0.00 0.00 71 1012.0
20260905073704 75 258 0.0 0.0 0.00 0.00 0.00 71 1012.1
20260905073604 75 258 0.0 0.0 0.00 0.00 0.00 71 1012.0
20260905073504 75 258 0.0 0.0 0.00 0.00 0.00 71 1012.0
20260905073404 75 258 0.0 0.0 0.00 0.00 0.00 71 1012.0
20260905073304 75 258 0.0 0.0 0.00 0.00 0.00 71 1012.0
20260905073204 75 258 0.0 0.0 0.00 0.00 0.00 71 1012.0
20260905073104 75 258 0.0 0.0 0.00 0.00 0.00 71 1012.0
20260905073004 75 258 0.0 0.0 0.00 0.00 0.00 71 1012.0
20260905072904 75 258 0.0 0.0 0.00 0.00 0.00 71 1012.1
20260905072804 75 258 0.0 0.0 0.00 0.00 0.00 71 1012.1
20260905072704 75 258 0.0 0.0 0.00 0.00 0.00 71 1012.1
20260905072604 75 258 0.0 0.0 0.00 0.00 0.00 71 1012.2
20260905072504 75 258 0.0 0.0 0.00 0.00 0.00 71 1012.2
20260905072404 75 258 0.0 0.0 0.00 0.00 0.00 71 1012.2
20260905072306 75 258 0.0 0.0 0.00 0.00 0.00 71 1012.2
20260905072204 75 258 0.0 0.0 0.00 0.00 0.00 71 1012.2
20260905072103 75 258 0.0 0.0 0.00 0.00 0.00 71 1012.2
20260905072004 75 258 0.0 0.0 0.00 0.00 0.00 71 1012.2
20260905071904 75 258 0.0 0.0 0.00 0.00 0.00 71 1012.1
20260905071804 75 258 0.0 0.0 0.00 0.00 0.00 71 1012.2
20260905071704 75 258 0.0 0.0 0.00 0.00 0.00 71 1012.2
20260905071603 75 258 0.0 0.0 0.00 0.00 0.00 71 1012.2
20260905071503 75 258 0.0 0.0 0.00 0.00 0.00 71 1012.2
20260905071404 75 258 0.0 0.0 0.00 0.00 0.00 71 1012.2
20260905071304 75 258 0.0 0.0 0.00 0.00 0.00 71 1012.2
20260905071204 75 258 0.0 0.0 0.00 0.00 0.00 71 1012.2
20260905071102 75 258 0.0 0.0 0.00 0.00 0.00 71 1012.2
20260905071003 75 258 0.0 0.0 0.00 0.00 0.00 71 1012.2
20260905070903 75 258 0.0 0.0 0.00 0.00 0.00 71 1012.2
20260905070803 75 258 0.0 0.0 0.00 0.00 0.00 71 1012.3
20260905070702 75 258 0.0 0.0 0.00 0.00 0.00 71 1012.2
20260905070603 75 258 0.0 0.0 0.00 0.00 0.00 71 1012.2
20260905070503 75 258 0.0 0.0 0.00 0.00 0.00 71 1012.2
20260905070403 75 258 0.0 0.0 0.00 0.00 0.00 71 1012.3
20260905070303 75 258 0.0 0.0 0.00 0.00 0.00 71 1012.3
20260905070203 75 258 0.0 0.0 0.00 0.00 0.00 71 1012.3
20260905070104 75 258 0.0 0.0 0.00 0.00 0.00 71 1012.3
20260905070004 75 258 0.0 0.9 0.00 0.00 0.00 72 1012.3
20260905065903 75 258 0.0 0.9 0.00 0.00 0.00 72 1012.4
20260905065803 75 258 0.0 0.9 0.00 0.00 0.00 72 1012.3
20260905065703 76 258 0.0 0.9 0.00 0.00 0.00 72 1012.4
20260905065603 76 258 0.0 0.9 0.00 0.00 0.00 72 1012.4
20260905065503 76 258 0.0 0.9 0.00 0.00 0.00 72 1012.4
20260905065403 76 258 0.0 0.9 0.00 0.00 0.00 72 1012.4
20260905065306 76 258 0.0 0.9 0.00 0.00 0.00 72 1012.5
20260905065203 76 258 0.0 0.9 0.00 0.00 0.00 72 1012.5
20260905065103 76 258 0.0 0.9 0.00 0.00 0.00 72 1012.4
20260905065003 76 258 0.0 0.0 0.00 0.00 0.00 72 1012.5
20260905064904 76 258 0.0 0.0 0.00 0.00 0.00 72 1012.4
20260905064803 76 258 0.0 0.0 0.00 0.00 0.00 72 1012.4
20260905064703 76 258 0.0 0.0 0.00 0.00 0.00 72 1012.4
20260905064602 76 258 0.0 0.0 0.00 0.00 0.00 72 1012.5
20260905064503 76 258 0.0 0.0 0.00 0.00 0.00 72 1012.4
20260905064403 76 258 0.0 0.0 0.00 0.00 0.00 72 1012.4
20260905064303 76 258 0.0 0.0 0.00 0.00 0.00 72 1012.4
20260905064203 76 258 0.0 0.0 0.00 0.00 0.00 72 1012.5
20260905064103 76 258 0.0 0.0 0.00 0.00 0.00 72 1012.5
20260905064003 76 258 0.0 0.0 0.00 0.00 0.00 72 1012.4
20260905063903 76 258 0.0 0.0 0.00 0.00 0.00 72 1012.5
20260905063803 76 258 0.0 0.0 0.00 0.00 0.00 72 1012.5
20260905063703 76 258 0.0 0.0 0.00 0.00 0.00 72 1012.5
20260905063602 76 258 0.0 0.0 0.00 0.00 0.00 72 1012.5
20260905063502 76 258 0.0 0.0 0.00 0.00 0.00 72 1012.5
20260905063402 76 258 0.0 0.0 0.00 0.00 0.00 72 1012.5
20260905063259 76 258 0.0 0.0 0.00 0.00 0.00 72 1012.4
20260905063158 76 258 0.0 0.0 0.00 0.00 0.00 72 1012.4
20260905063057 76 258 0.0 0.0 0.00 0.00 0.00 72 1012.4
20260905062955 76 258 0.0 0.0 0.00 0.00 0.00 72 1012.4
20260905062854 76 258 0.0 0.0 0.00 0.00 0.00 72 1012.4
20260905062753 76 258 0.0 0.0 0.00 0.00 0.00 72 1012.5
20260905062650 76 258 0.0 0.0 0.00 0.00 0.00 72 1012.4
20260905062549 76 258 0.0 0.0 0.00 0.00 0.00 72 1012.3
20260905062448 76 258 0.0 0.0 0.00 0.00 0.00 72 1012.3
20260905062346 76 258 0.0 0.0 0.00 0.00 0.00 72 1012.4
20260905062245 76 258 0.0 0.0 0.00 0.00 0.00 72 1012.5
20260905062143 76 258 0.0 0.0 0.00 0.00 0.00 72 1012.5
20260905062041 76 258 0.0 0.0 0.00 0.00 0.00 71 1012.5
20260905061940 76 258 0.0 0.0 0.00 0.00 0.00 71 1012.5
20260905061839 76 258 0.0 0.0 0.00 0.00 0.00 71 1012.4
20260905061738 76 258 0.0 0.0 0.00 0.00 0.00 72 1012.5
20260905061636 76 258 0.0 0.0 0.00 0.00 0.00 72 1012.5
20260905061534 76 258 0.0 0.0 0.00 0.00 0.00 71 1012.4
20260905061432 76 258 0.0 0.0 0.00 0.00 0.00 71 1012.5
20260905061331 76 258 0.0 0.0 0.00 0.00 0.00 71 1012.5
20260905061230 77 258 0.0 0.0 0.00 0.00 0.00 71 1012.5
20260905061130 76 258 0.0 0.0 0.00 0.00 0.00 71 1012.5
20260905061030 77 258 0.0 0.0 0.00 0.00 0.00 71 1012.5
20260905060930 77 258 0.0 0.0 0.00 0.00 0.00 72 1012.5
20260905060829 77 258 0.0 0.0 0.00 0.00 0.00 72 1012.5
20260905060728 77 258 0.0 0.0 0.00 0.00 0.00 72 1012.6
20260905060625 77 258 0.0 0.0 0.00 0.00 0.00 72 1012.5
20260905060524 77 258 0.0 0.0 0.00 0.00 0.00 72 1012.5
20260905060423 77 258 0.0 0.0 0.00 0.00 0.00 72 1012.6
20260905060322 77 258 0.0 0.0 0.00 0.00 0.00 72 1012.6
20260905060220 77 258 0.0 0.0 0.00 0.00 0.00 72 1012.6
20260905060118 77 258 0.0 0.0 0.00 0.00 0.00 72 1012.5
20260905060017 77 258 0.0 0.0 0.00 0.00 0.00 72 1012.6
20260905055915 77 258 0.0 0.0 0.00 0.00 0.00 72 1012.5
20260905055814 77 258 0.0 0.0 0.00 0.00 0.00 72 1012.5
20260905055713 77 258 0.0 0.0 0.00 0.00 0.00 72 1012.5
20260905055610 77 258 0.0 0.0 0.00 0.00 0.00 72 1012.5
20260905055509 77 258 0.0 0.0 0.00 0.00 0.00 72 1012.5
20260905055408 77 258 0.0 0.0 0.00 0.00 0.00 72 1012.6
20260905055306 77 258 0.0 0.0 0.00 0.00 0.00 72 1012.5
20260905055203 77 258 0.0 0.0 0.00 0.00 0.00 72 1012.6
20260905055103 77 258 0.0 0.0 0.00 0.00 0.00 72 1012.6
20260905055001 77 258 0.0 0.0 0.00 0.00 0.00 72 1012.5
20260905054902 77 258 0.0 0.9 0.00 0.00 0.00 72 1012.5
20260905054802 77 258 0.0 0.9 0.00 0.00 0.00 72 1012.5
20260905054703 77 258 0.0 0.9 0.00 0.00 0.00 72 1012.5
20260905054602 77 258 0.0 0.9 0.00 0.00 0.00 72 1012.5
20260905054503 77 258 0.0 0.9 0.00 0.00 0.00 72 1012.5
20260905054403 77 258 0.0 0.9 0.00 0.00 0.00 72 1012.5
20260905054301 77 258 0.0 0.9 0.00 0.00 0.00 72 1012.5
20260905054202 77 258 0.0 0.9 0.00 0.00 0.00 72 1012.5
20260905054102 77 258 0.0 0.9 0.00 0.00 0.00 72 1012.5
20260905054002 77 258 0.0 0.9 0.00 0.00 0.00 72 1012.5
20260905053902 77 258 0.0 0.9 0.00 0.00 0.00 72 1012.6
20260905053802 77 258 0.0 0.9 0.00 0.00 0.00 72 1012.5
20260905053702 77 258 0.9 0.9 0.00 0.00 0.00 72 1012.5
20260905053603 77 258 0.0 0.9 0.00 0.00 0.00 72 1012.6
20260905053502 77 258 0.0 0.9 0.00 0.00 0.00 72 1012.6
20260905053402 77 258 0.0 0.9 0.00 0.00 0.00 72 1012.5
20260905053303 77 258 0.0 0.9 0.00 0.00 0.00 72 1012.5
20260905053203 77 258 0.0 0.9 0.00 0.00 0.00 72 1012.5
20260905053101 77 258 0.0 0.9 0.00 0.00 0.00 72 1012.5
20260905053002 77 258 0.0 0.9 0.00 0.00 0.00 72 1012.5
20260905052902 77 258 0.0 0.9 0.00 0.00 0.00 72 1012.5
20260905052802 77 258 0.0 0.9 0.00 0.00 0.00 72 1012.5
20260905052702 77 258 0.0 0.9 0.00 0.00 0.00 72 1012.6
20260905052602 77 258 0.0 0.9 0.00 0.00 0.00 72 1012.5
20260905052502 77 258 0.0 0.9 0.00 0.00 0.00 72 1012.5
20260905052402 77 258 0.0 0.0 0.00 0.00 0.00 72 1012.6
20260905052306 77 258 0.0 0.0 0.00 0.00 0.00 72 1012.6
20260905052202 77 258 0.0 0.0 0.00 0.00 0.00 72 1012.6
20260905052101 77 258 0.0 0.9 0.00 0.00 0.00 72 1012.5
20260905052001 77 258 0.0 0.9 0.00 0.00 0.00 72 1012.5
20260905051901 77 258 0.0 0.9 0.00 0.00 0.00 72 1012.6
20260905051801 77 258 0.0 0.9 0.00 0.00 0.00 72 1012.5
20260905051701 77 258 0.0 0.9 0.00 0.00 0.00 72 1012.5
20260905051601 77 258 0.0 0.9 0.00 0.00 0.00 72 1012.6
20260905051501 77 258 0.0 0.9 0.00 0.00 0.00 72 1012.5
20260905051401 77 258 0.0 0.9 0.00 0.00 0.00 72 1012.5
20260905051301 77 258 0.0 0.9 0.00 0.00 0.00 72 1012.6
20260905051200 77 258 0.0 0.9 0.00 0.00 0.00 73 1012.6
20260905051100 77 258 0.0 0.9 0.00 0.00 0.00 73 1012.6
20260905051001 77 258 0.0 0.9 0.00 0.00 0.00 73 1012.6
20260905050901 78 258 0.0 0.9 0.00 0.00 0.00 73 1012.6
20260905050801 78 258 0.0 0.9 0.00 0.00 0.00 73 1012.6
20260905050701 78 258 0.0 0.0 0.00 0.00 0.00 73 1012.6
20260905050601 78 258 0.0 0.0 0.00 0.00 0.00 72 1012.7
20260905050501 78 258 0.0 0.0 0.00 0.00 0.00 72 1012.6
20260905050401 78 258 0.0 0.0 0.00 0.00 0.00 73 1012.7
20260905050301 78 258 0.0 0.0 0.00 0.00 0.00 73 1012.6
20260905050201 78 258 0.0 0.0 0.00 0.00 0.00 73 1012.7
20260905050101 78 258 0.0 0.0 0.00 0.00 0.00 73 1012.7
20260905050000 78 258 0.0 0.0 0.00 0.00 0.00 73 1012.7
20260905045900 78 258 0.0 0.0 0.00 0.00 0.00 73 1012.6
20260905045800 78 258 0.0 0.0 0.00 0.00 0.00 73 1012.7
20260905045700 78 258 0.0 0.0 0.00 0.00 0.00 73 1012.7
20260905045600 78 258 0.0 0.0 0.00 0.00 0.00 73 1012.7
20260905045500 78 258 0.0 0.0 0.00 0.00 0.00 73 1012.7
20260905045400 78 258 0.0 0.0 0.00 0.00 0.00 73 1012.7
20260905045300 78 258 0.0 0.0 0.00 0.00 0.00 73 1012.7
20260905045200 78 258 0.0 0.0 0.00 0.00 0.00 73 1012.8
20260905045100 78 258 0.0 0.0 0.00 0.00 0.00 73 1012.7
20260905045000 78 258 0.0 0.0 0.00 0.00 0.00 73 1012.7
20260905044900 78 258 0.0 0.0 0.00 0.00 0.00 73 1012.8
20260905044800 78 258 0.0 0.0 0.00 0.00 0.00 73 1012.8
20260905044700 78 258 0.0 0.0 0.00 0.00 0.00 73 1012.7
20260905044600 78 258 0.0 0.0 0.00 0.00 0.00 73 1012.7
20260905044502 78 258 0.0 0.0 0.00 0.00 0.00 73 1012.7
20260905044401 78 258 0.0 0.0 0.00 0.00 0.00 72 1012.7
20260905044300 78 258 0.0 0.0 0.00 0.00 0.00 72 1012.7
20260905044200 78 258 0.0 0.0 0.00 0.00 0.00 72 1012.7
20260905044100 78 258 0.0 0.9 0.00 0.00 0.00 72 1012.7
20260905044000 78 258 0.0 0.9 0.00 0.00 0.00 72 1012.7
20260905043900 78 258 0.0 0.9 0.00 0.00 0.00 72 1012.7
20260905043800 78 258 0.0 0.9 0.00 0.00 0.00 72 1012.7
20260905043700 78 258 0.0 0.9 0.00 0.00 0.00 72 1012.8
20260905043600 78 258 0.0 0.9 0.00 0.00 0.00 73 1012.8
20260905043500 78 258 0.0 0.9 0.00 0.00 0.00 73 1012.7
20260905043400 78 258 0.0 0.9 0.00 0.00 0.00 72 1012.8
20260905043300 78 258 0.0 0.9 0.00 0.00 0.00 72 1012.8
20260905043200 78 258 0.0 0.9 0.00 0.00 0.00 73 1012.8
20260905043100 78 258 0.0 0.9 0.00 0.00 0.00 73 1012.8
20260905043000 78 258 0.0 0.9 0.00 0.00 0.00 73 1012.8
20260905042900 78 258 0.0 0.9 0.00 0.00 0.00 73 1012.8
20260905042800 78 258 0.0 0.9 0.00 0.00 0.00 73 1012.9
20260905042700 78 258 0.0 0.9 0.00 0.00 0.00 73 1012.9
20260905042600 78 258 0.0 0.9 0.00 0.00 0.00 73 1012.9
20260905042500 78 258 0.0 0.0 0.00 0.00 0.00 73 1013.0
20260905042400 78 258 0.0 0.0 0.00 0.00 0.00 73 1013.0
20260905042300 78 258 0.0 0.0 0.00 0.00 0.00 73 1013.0
20260905042200 78 258 0.0 0.0 0.00 0.00 0.00 73 1012.9
20260905042059 78 258 0.0 0.0 0.00 0.00 0.00 73 1013.0
20260905041959 78 258 0.0 0.0 0.00 0.00 0.00 73 1013.1
20260905041859 78 258 0.0 0.0 0.00 0.00 0.00 73 1013.1
20260905041759 78 258 0.0 0.0 0.00 0.00 0.00 73 1013.1
20260905041659 78 258 0.0 0.0 0.00 0.00 0.00 73 1013.1
20260905041618 78 258 0.0 0.0 0.00 0.00 0.00 74 1013.0
20260905041459 78 258 0.0 0.0 0.00 0.00 0.00 74 1013.0
20260905041359 78 258 0.0 0.0 0.00 0.00 0.00 74 1013.1
20260905041259 78 258 0.0 0.0 0.00 0.00 0.00 74 1013.1
20260905041159 78 258 0.0 0.0 0.00 0.00 0.00 74 1013.1
20260905041059 78 258 0.0 0.0 0.00 0.00 0.00 74 1013.1
20260905040959 78 258 0.0 0.0 0.00 0.00 0.00 74 1013.1
20260905040859 78 258 0.0 0.0 0.00 0.00 0.00 74 1013.0
20260905040759 78 258 0.0 0.0 0.00 0.00 0.00 74 1013.1
20260905040659 79 258 0.0 0.0 0.00 0.00 0.00 74 1013.0
20260905040559 79 258 0.0 0.0 0.00 0.00 0.00 73 1013.0
20260905040459 79 258 0.0 0.0 0.00 0.00 0.00 73 1013.0
20260905040359 79 258 0.0 0.0 0.00 0.00 0.00 74 1013.0
20260905040259 79 258 0.0 0.0 0.00 0.00 0.00 73 1013.0
20260905040159 79 258 0.0 0.0 0.00 0.00 0.00 73 1013.0
20260905040059 79 258 0.0 0.0 0.00 0.00 0.00 74 1012.9
20260905035959 79 258 0.0 0.0 0.00 0.00 0.00 74 1013.0
20260905035859 79 258 0.0 0.0 0.00 0.00 0.00 74 1012.9
20260905035759 79 258 0.0 0.0 0.00 0.00 0.00 74 1013.0
20260905035659 79 258 0.0 0.9 0.00 0.00 0.00 74 1013.0
20260905035559 79 258 0.0 0.9 0.00 0.00 0.00 73 1012.9
20260905035459 79 258 0.0 0.9 0.00 0.00 0.00 73 1013.0
20260905035359 79 258 0.0 0.9 0.00 0.00 0.00 73 1012.9
20260905035259 79 258 0.0 0.9 0.00 0.00 0.00 73 1013.0
20260905035158 79 258 0.0 0.9 0.00 0.00 0.00 73 1013.0
20260905035058 79 258 0.0 0.9 0.00 0.00 0.00 73 1013.0
20260905034958 79 258 0.0 0.9 0.00 0.00 0.00 74 1013.0
20260905034858 79 258 0.0 0.9 0.00 0.00 0.00 74 1013.1
20260905034759 79 258 0.0 0.9 0.00 0.00 0.00 74 1013.0
20260905034659 79 258 0.0 0.9 0.00 0.00 0.00 74 1013.0
20260905034559 79 258 0.0 0.9 0.00 0.00 0.00 74 1013.0
20260905034459 79 258 0.0 0.9 0.00 0.00 0.00 74 1013.0
20260905034359 79 258 0.0 0.9 0.00 0.00 0.00 74 1013.0
20260905034259 79 258 0.0 0.9 0.00 0.00 0.00 74 1013.0
20260905034159 79 258 0.0 0.0 0.00 0.00 0.00 74 1013.0
20260905034058 79 258 0.0 0.0 0.00 0.00 0.00 74 1013.0
20260905033958 79 258 0.0 0.0 0.00 0.00 0.00 74 1013.0
20260905033857 79 258 0.0 0.0 0.00 0.00 0.00 74 1013.0
20260905033758 79 258 0.0 0.0 0.00 0.00 0.00 74 1013.0
20260905033658 79 258 0.0 0.0 0.00 0.00 0.00 74 1013.1
20260905033558 79 258 0.0 0.0 0.00 0.00 0.00 74 1013.0
20260905033458 79 258 0.0 0.0 0.00 0.00 0.00 74 1013.1
20260905033358 79 258 0.0 0.0 0.00 0.00 0.00 74 1013.1
20260905033258 79 258 0.0 0.0 0.00 0.00 0.00 74 1013.1
20260905033158 79 258 0.0 0.0 0.00 0.00 0.00 74 1013.2
20260905033058 79 258 0.0 0.0 0.00 0.00 0.00 74 1013.1
20260905032958 79 258 0.0 0.0 0.00 0.00 0.00 74 1013.0
20260905032858 79 258 0.0 0.0 0.00 0.00 0.00 75 1013.0
20260905032758 79 258 0.0 0.0 0.00 0.00 0.00 75 1013.1
20260905032658 79 258 0.0 0.0 0.00 0.00 0.00 75 1013.1
20260905032558 79 258 0.0 0.0 0.00 0.00 0.00 75 1013.0
20260905032458 79 258 0.0 0.0 0.00 0.00 0.00 75 1013.1
20260905032358 79 258 0.0 0.0 0.00 0.00 0.00 75 1013.0
20260905032258 79 258 0.0 0.0 0.00 0.00 0.00 74 1013.1
20260905032158 79 258 0.0 0.0 0.00 0.00 0.00 75 1013.1
20260905032058 80 258 0.0 0.0 0.00 0.00 0.00 75 1013.0
20260905031958 80 258 0.0 0.0 0.00 0.00 0.00 75 1013.0
20260905031858 80 258 0.0 0.0 0.00 0.00 0.00 75 1013.0
20260905031758 80 258 0.0 0.0 0.00 0.00 0.00 75 1013.1
20260905031658 80 258 0.0 0.0 0.00 0.00 0.00 75 1013.1
20260905031558 80 258 0.0 0.0 0.00 0.00 0.00 75 1013.1
20260905031458 80 258 0.0 0.0 0.00 0.00 0.00 75 1013.1
20260905031358 80 258 0.0 0.0 0.00 0.00 0.00 75 1013.1
20260905031258 80 258 0.0 0.0 0.00 0.00 0.00 75 1013.1
20260905031158 80 258 0.0 0.0 0.00 0.00 0.00 75 1013.0
20260905031058 80 258 0.0 0.0 0.00 0.00 0.00 75 1013.1
20260905030958 80 258 0.0 0.0 0.00 0.00 0.00 75 1013.1
20260905030858 80 258 0.0 0.0 0.00 0.00 0.00 75 1013.0
20260905030758 80 258 0.0 0.0 0.00 0.00 0.00 75 1013.1
20260905030658 80 258 0.0 0.0 0.00 0.00 0.00 75 1013.1
20260905030558 80 258 0.0 0.0 0.00 0.00 0.00 75 1013.1
20260905030458 80 258 0.0 0.0 0.00 0.00 0.00 75 1013.1
20260905030358 80 258 0.0 0.0 0.00 0.00 0.00 75 1013.2
20260905030258 80 258 0.0 0.0 0.00 0.00 0.00 75 1013.1
20260905030158 80 258 0.0 0.0 0.00 0.00 0.00 74 1013.1
20260905030058 80 258 0.0 0.0 0.00 0.00 0.00 74 1013.1
20260905025958 80 258 0.0 0.0 0.00 0.00 0.00 75 1013.1
20260905025858 80 258 0.0 0.0 0.00 0.00 0.00 75 1013.1
20260905025758 80 258 0.0 0.0 0.00 0.00 0.00 75 1013.0
20260905025658 80 258 0.0 0.0 0.00 0.00 0.00 75 1013.0
20260905025558 80 258 0.0 0.0 0.00 0.00 0.00 75 1013.0
20260905025458 80 258 0.0 0.0 0.00 0.00 0.00 75 1013.0
20260905025356 80 258 0.0 0.0 0.00 0.00 0.00 75 1013.0
20260905025257 80 258 0.0 0.0 0.00 0.00 0.00 75 1013.0
20260905025157 80 258 0.0 0.0 0.00 0.00 0.00 75 1013.0
20260905025057 80 258 0.0 0.0 0.00 0.00 0.00 75 1012.9
20260905024957 80 258 0.0 0.0 0.00 0.00 0.00 75 1013.0
20260905024857 80 258 0.0 0.0 0.00 0.00 0.00 75 1013.0
20260905024757 80 258 0.0 0.0 0.00 0.00 0.00 75 1012.9
20260905024657 80 258 0.0 0.0 0.00 0.00 0.00 75 1012.9
20260905024557 80 258 0.0 0.0 0.00 0.00 0.00 75 1012.9
20260905024458 80 258 0.0 0.0 0.00 0.00 0.00 75 1012.9
20260905024357 80 258 0.0 0.0 0.00 0.00 0.00 75 1012.9
20260905024257 80 258 0.0 0.0 0.00 0.00 0.00 75 1012.9
20260905024157 80 258 0.0 0.0 0.00 0.00 0.00 75 1013.0
20260905024053 80 258 0.0 0.0 0.00 0.00 0.00 75 1013.0
20260905023948 80 258 0.0 0.0 0.00 0.00 0.00 76 1012.9
20260905023847 80 258 0.0 0.0 0.00 0.00 0.00 76 1012.9
20260905023746 80 258 0.0 0.0 0.00 0.00 0.00 76 1012.9
20260905023645 80 258 0.0 0.0 0.00 0.00 0.00 76 1012.9
20260905023542 80 258 0.0 0.0 0.00 0.00 0.00 76 1012.8
20260905023441 80 258 0.0 0.0 0.00 0.00 0.00 76 1012.8
20260905023340 80 258 0.0 0.0 0.00 0.00 0.00 76 1012.8
20260905023238 80 258 0.0 0.0 0.00 0.00 0.00 76 1012.9
20260905023137 81 258 0.0 0.0 0.00 0.00 0.00 76 1012.9
20260905023035 81 258 0.0 0.0 0.00 0.00 0.00 76 1012.8
20260905022934 81 258 0.0 0.0 0.00 0.00 0.00 76 1012.9
20260905022832 81 258 0.0 0.0 0.00 0.00 0.00 76 1012.8
20260905022731 81 258 0.0 0.0 0.00 0.00 0.00 76 1012.8
20260905022631 81 258 0.0 0.0 0.00 0.00 0.00 76 1012.8
20260905022532 81 258 0.0 0.0 0.00 0.00 0.00 76 1012.9
20260905022431 81 258 0.0 0.0 0.00 0.00 0.00 76 1012.7
20260905022330 81 258 0.0 0.0 0.00 0.00 0.00 76 1012.8
20260905022228 81 258 0.0 0.0 0.00 0.00 0.00 76 1012.7
20260905022127 81 258 0.0 0.0 0.00 0.00 0.00 76 1012.8
20260905022022 81 258 0.0 0.0 0.00 0.00 0.00 76 1012.8
20260905021921 81 258 0.0 0.0 0.00 0.00 0.00 76 1012.8
20260905021815 81 258 0.0 0.0 0.00 0.00 0.00 76 1012.8
20260905021713 81 258 0.0 0.0 0.00 0.00 0.00 76 1012.8
20260905021609 81 258 0.0 0.0 0.00 0.00 0.00 76 1012.7
20260905021507 81 258 0.0 0.0 0.00 0.00 0.00 76 1012.9
20260905021406 81 258 0.0 0.0 0.00 0.00 0.00 76 1012.8
20260905021305 81 258 0.0 0.0 0.00 0.00 0.00 76 1012.8
20260905021203 81 258 0.0 0.0 0.00 0.00 0.00 77 1012.8
20260905021102 81 258 0.0 0.0 0.00 0.00 0.00 76 1012.7
20260905021002 81 258 0.0 0.0 0.00 0.00 0.00 76 1012.7
20260905020902 81 258 0.0 0.0 0.00 0.00 0.00 77 1012.8
20260905020802 81 258 0.0 0.0 0.00 0.00 0.00 77 1012.8
20260905020702 81 258 0.0 0.0 0.00 0.00 0.00 77 1012.7
20260905020602 81 258 0.0 0.0 0.00 0.00 0.00 77 1012.7
20260905020502 81 258 0.0 0.0 0.00 0.00 0.00 77 1012.7
20260905020403 81 258 0.0 0.0 0.00 0.00 0.00 77 1012.8
20260905020302 81 258 0.0 0.0 0.00 0.00 0.00 77 1012.8
20260905020202 81 258 0.0 0.0 0.00 0.00 0.00 77 1012.8
20260905020002 81 258 0.0 0.0 0.00 0.00 0.00 77 1012.8
20260905015902 81 258 0.0 0.0 0.00 0.00 0.00 77 1012.8
20260905015802 81 258 0.0 0.0 0.00 0.00 0.00 77 1012.9
20260905015702 82 258 0.0 0.0 0.00 0.00 0.00 77 1012.9
20260905015603 82 258 0.0 0.0 0.00 0.00 0.00 77 1012.8
20260905015503 82 258 0.0 0.0 0.00 0.00 0.00 77 1012.8
20260905015401 82 258 0.0 0.0 0.00 0.00 0.00 77 1012.8
20260905015306 82 258 0.0 0.0 0.00 0.00 0.00 77 1012.8
20260905015202 82 258 0.0 0.0 0.00 0.00 0.00 77 1012.8
20260905015102 82 258 0.0 0.0 0.00 0.00 0.00 77 1012.8
20260905015002 82 258 0.0 0.0 0.00 0.00 0.00 77 1012.7
20260905014902 82 258 0.0 0.0 0.00 0.00 0.00 78 1012.8
20260905014802 82 258 0.0 0.0 0.00 0.00 0.00 78 1012.8
20260905014703 82 258 0.0 0.0 0.00 0.00 0.00 78 1012.8
20260905014602 82 258 0.0 0.0 0.00 0.00 0.00 78 1012.8
20260905014503 82 258 0.0 0.0 0.00 0.00 0.00 78 1012.8
20260905014401 82 258 0.0 0.0 0.00 0.00 0.00 78 1012.7
20260905014302 82 258 0.0 0.0 0.00 0.00 0.00 78 1012.7
20260905014202 82 258 0.0 0.0 0.00 0.00 0.00 78 1012.7
20260905014102 82 258 0.0 0.0 0.00 0.00 0.00 78 1012.7
20260905014003 82 258 0.0 0.0 0.00 0.00 0.00 78 1012.7
20260905013902 82 258 0.0 0.0 0.00 0.00 0.00 78 1012.7
20260905013801 82 258 0.0 0.0 0.00 0.00 0.00 79 1012.7
20260905013702 82 258 0.0 0.0 0.00 0.00 0.00 79 1012.6
20260905013602 82 258 0.0 0.0 0.00 0.00 0.00 79 1012.7
20260905013502 82 258 0.0 0.0 0.00 0.00 0.00 79 1012.6
20260905013402 82 258 0.0 0.0 0.00 0.00 0.00 79 1012.6
20260905013302 82 258 0.0 0.0 0.00 0.00 0.00 79 1012.7
20260905013202 82 258 0.0 0.0 0.00 0.00 0.00 79 1012.6
20260905013102 82 258 0.0 0.0 0.00 0.00 0.00 79 1012.6
20260905012959 82 258 0.0 0.0 0.00 0.00 0.00 79 1012.6
20260905012858 82 258 0.0 0.9 0.00 0.00 0.00 79 1012.6
20260905012756 82 258 0.0 1.7 0.00 0.00 0.00 79 1012.6
20260905012656 82 258 0.0 1.7 0.00 0.00 0.00 79 1012.6
20260905012556 82 258 0.0 1.7 0.00 0.00 0.00 79 1012.5
20260905012455 82 258 0.0 2.6 0.00 0.00 0.00 79 1012.6
20260905012355 83 258 0.0 2.6 0.00 0.00 0.00 79 1012.6
20260905012255 83 258 0.0 2.6 0.00 0.00 0.00 79 1012.5
20260905012155 83 258 0.0 2.6 0.00 0.00 0.00 79 1012.6
20260905012055 83 258 0.0 2.6 0.00 0.00 0.00 79 1012.6
20260905011956 83 258 0.9 2.6 0.00 0.00 0.00 79 1012.5
20260905011855 83 258 0.9 2.6 0.00 0.00 0.00 79 1012.5
20260905011756 83 258 0.9 2.6 0.00 0.00 0.00 79 1012.6
20260905011656 83 258 0.9 2.6 0.00 0.00 0.00 79 1012.5
20260905011556 83 257 0.9 2.6 0.00 0.00 0.00 79 1012.5
20260905011455 83 257 0.0 0.0 0.00 0.00 0.00 79 1012.5
20260905011355 83 257 0.0 0.0 0.00 0.00 0.00 79 1012.4
20260905011255 83 257 0.0 0.0 0.00 0.00 0.00 79 1012.4
20260905011155 83 257 0.0 0.0 0.00 0.00 0.00 79 1012.3
20260905011055 83 257 0.0 0.0 0.00 0.00 0.00 79 1012.3
20260905010955 83 257 0.0 0.0 0.00 0.00 0.00 79 1012.3
20260905010855 83 257 0.0 0.0 0.00 0.00 0.00 79 1012.3
20260905010755 83 257 0.0 0.0 0.00 0.00 0.00 79 1012.2
20260905010655 83 257 0.0 0.0 0.00 0.00 0.00 79 1012.3
20260905010555 83 257 0.0 0.0 0.00 0.00 0.00 79 1012.3
20260905010455 83 257 0.0 0.0 0.00 0.00 0.00 79 1012.3
20260905010355 83 257 0.0 0.0 0.00 0.00 0.00 79 1012.3
20260905010255 84 257 0.0 0.0 0.00 0.00 0.00 80 1012.2
20260905010156 84 257 0.0 0.0 0.00 0.00 0.00 80 1012.3
20260905010054 84 257 0.0 0.0 0.00 0.00 0.00 80 1012.3
20260905005955 84 257 0.0 0.0 0.00 0.00 0.00 80 1012.4
20260905005855 84 257 0.0 0.0 0.00 0.00 0.00 80 1012.3
20260905005755 84 257 0.0 0.0 0.00 0.00 0.00 80 1012.3
20260905005655 84 257 0.0 0.0 0.00 0.00 0.00 80 1012.3
20260905005555 84 257 0.0 0.0 0.00 0.00 0.00 80 1012.3
20260905005455 84 257 0.0 0.0 0.00 0.00 0.00 80 1012.3
20260905005355 84 257 0.0 0.0 0.00 0.00 0.00 80 1012.4
20260905005255 84 257 0.0 0.0 0.00 0.00 0.00 80 1012.3
20260905005155 84 257 0.0 0.0 0.00 0.00 0.00 80 1012.4
20260905005055 84 257 0.0 0.0 0.00 0.00 0.00 80 1012.3
20260905004955 84 257 0.0 0.0 0.00 0.00 0.00 80 1012.3
20260905004853 84 257 0.0 0.0 0.00 0.00 0.00 80 1012.2
20260905004754 84 257 0.0 0.0 0.00 0.00 0.00 80 1012.2
20260905004655 84 257 0.0 0.0 0.00 0.00 0.00 80 1012.2
20260905004555 85 257 0.0 0.0 0.00 0.00 0.00 80 1012.3
20260905004454 85 257 0.0 0.0 0.00 0.00 0.00 80 1012.2
20260905004355 85 257 0.0 0.0 0.00 0.00 0.00 80 1012.2
20260905004255 85 257 0.0 0.0 0.00 0.00 0.00 79 1012.3
20260905004155 85 257 0.0 0.0 0.00 0.00 0.00 79 1012.2
20260905004055 85 257 0.0 0.0 0.00 0.00 0.00 79 1012.2
20260905003955 85 257 0.0 0.0 0.00 0.00 0.00 79 1012.2
20260905003855 85 257 0.0 0.0 0.00 0.00 0.00 79 1012.1
20260905003755 85 257 0.0 0.0 0.00 0.00 0.00 79 1012.2
20260905003654 85 257 0.0 0.0 0.00 0.00 0.00 79 1012.2
20260905003554 85 257 0.0 0.0 0.00 0.00 0.00 79 1012.2
20260905003454 85 257 0.0 0.0 0.00 0.00 0.00 79 1012.1
20260905003354 85 257 0.0 0.0 0.00 0.00 0.00 79 1012.1
20260905003254 85 257 0.0 0.0 0.00 0.00 0.00 78 1012.1
20260905003155 85 257 0.0 0.0 0.00 0.00 0.00 78 1012.1
20260905003055 85 257 0.0 0.0 0.00 0.00 0.00 78 1012.2
20260905002954 85 257 0.0 0.0 0.00 0.00 0.00 78 1012.2
20260905002854 85 257 0.0 0.0 0.00 0.00 0.00 78 1012.2
20260905002754 86 257 0.0 0.0 0.00 0.00 0.00 78 1012.2
20260905002654 86 257 0.0 0.0 0.00 0.00 0.00 78 1012.2
20260905002554 86 257 0.0 0.0 0.00 0.00 0.00 78 1012.1
20260905002454 86 257 0.0 0.0 0.00 0.00 0.00 77 1012.2
20260905002354 86 257 0.0 0.0 0.00 0.00 0.00 77 1012.2
20260905002254 86 257 0.0 0.0 0.00 0.00 0.00 77 1012.2
20260905002154 86 257 0.0 0.0 0.00 0.00 0.00 77 1012.3
20260905002054 86 257 0.0 0.0 0.00 0.00 0.00 77 1012.2
20260905001954 86 257 0.0 0.0 0.00 0.00 0.00 77 1012.2
20260905001854 86 257 0.0 0.0 0.00 0.00 0.00 77 1012.2
20260905001755 86 257 0.0 0.0 0.00 0.00 0.00 77 1012.1
20260905001654 86 257 0.0 0.0 0.00 0.00 0.00 76 1012.2
20260905001554 86 257 0.0 0.0 0.00 0.00 0.00 76 1012.2
20260905001454 86 257 0.0 0.0 0.00 0.00 0.00 76 1012.2
20260905001354 87 257 0.0 0.0 0.00 0.00 0.00 76 1012.2
20260905001254 87 257 0.0 0.0 0.00 0.00 0.00 76 1012.1
20260905001154 87 257 0.0 0.0 0.00 0.00 0.00 76 1012.2
20260905001054 87 257 0.0 0.0 0.00 0.00 0.00 75 1012.2
20260905000954 87 257 0.0 0.0 0.00 0.00 0.00 75 1012.2
20260905000853 87 257 0.0 0.0 0.00 0.00 0.00 75 1012.1
20260905000753 87 257 0.0 0.0 0.00 0.00 0.00 75 1012.2
20260905000653 87 257 0.0 0.0 0.00 0.00 0.00 75 1012.2
20260905000554 87 257 0.0 0.0 0.00 0.00 0.00 75 1012.1
20260905000454 87 257 0.0 0.0 0.00 0.00 0.00 74 1012.1
20260905000355 87 257 0.0 0.0 0.00 0.00 0.00 74 1012.2
20260905000255 87 257 0.0 0.0 0.00 0.00 0.00 74 1012.1
20260905000154 87 257 0.0 0.0 0.00 0.00 0.00 74 1012.1
20260905000054 87 257 0.0 0.0 0.00 0.00 0.00 74 1012.1
20260904235953 87 257 0.0 0.0 0.00 0.00 0.00 74 1012.1
20260904235854 88 257 0.0 0.0 0.00 0.00 0.00 73 1012.1
20260904235754 88 257 0.0 0.0 0.00 0.00 0.00 73 1012.1
20260904235653 88 257 0.0 0.0 0.00 0.00 0.00 72 1012.1
20260904235553 88 257 0.0 0.0 0.00 0.00 0.00 72 1012.1
20260904235453 88 257 0.0 0.0 0.00 0.00 0.00 73 1012.0
20260904235354 88 257 0.0 0.0 0.00 0.00 0.00 73 1012.1
20260904235253 88 257 0.0 0.0 0.00 0.00 0.00 73 1012.0
20260904235153 88 257 0.0 0.0 0.00 0.00 0.00 72 1012.0
20260904235053 88 257 0.0 0.0 0.00 0.00 0.00 72 1012.0
20260904234953 88 257 0.0 0.0 0.00 0.00 0.00 72 1012.0
20260904234853 88 257 0.0 0.0 0.00 0.00 0.00 72 1012.0
20260904234753 88 257 0.0 0.0 0.00 0.00 0.00 72 1012.1
20260904234653 88 257 0.0 0.0 0.00 0.00 0.00 71 1012.0
20260904234553 88 257 0.0 0.0 0.00 0.00 0.00 71 1012.0
20260904234453 89 257 0.0 0.0 0.00 0.00 0.00 71 1012.0
20260904234353 89 257 0.0 0.0 0.00 0.00 0.00 72 1012.0
20260904234253 89 257 0.0 0.0 0.00 0.00 0.00 72 1012.0
20260904234153 89 257 0.0 0.0 0.00 0.00 0.00 71 1012.0
20260904234053 89 257 0.0 0.0 0.00 0.00 0.00 71 1012.0
20260904233953 89 257 0.0 0.0 0.00 0.00 0.00 71 1012.0
20260904233853 89 257 0.0 0.0 0.00 0.00 0.00 71 1012.0
20260904233753 89 257 0.0 0.0 0.00 0.00 0.00 71 1012.0
20260904233653 89 257 0.0 0.0 0.00 0.00 0.00 71 1012.0
20260904233553 89 257 0.0 0.0 0.00 0.00 0.00 71 1012.1
20260904233453 89 257 0.0 0.0 0.00 0.00 0.00 71 1012.1
20260904233353 89 257 0.0 0.0 0.00 0.00 0.00 71 1012.0
20260904233253 89 257 0.0 0.0 0.00 0.00 0.00 71 1012.0
20260904233152 90 257 0.0 0.0 0.00 0.00 0.00 71 1012.0
20260904233052 90 257 0.0 0.0 0.00 0.00 0.00 72 1012.0
20260904232953 90 257 0.0 0.0 0.00 0.00 0.00 73 1012.0
20260904232853 90 257 0.0 0.0 0.00 0.00 0.00 74 1012.0
20260904232753 90 257 0.0 0.0 0.00 0.00 0.00 73 1012.0
20260904232653 90 257 0.0 0.0 0.00 0.00 0.00 73 1012.0
20260904232553 90 257 0.0 0.0 0.00 0.00 0.00 73 1012.0
20260904232453 90 257 0.0 0.0 0.00 0.00 0.00 72 1012.0
20260904232353 90 257 0.0 0.0 0.00 0.00 0.00 69 1012.0
20260904232253 90 257 0.0 0.0 0.00 0.00 0.00 69 1012.0
20260904232153 90 257 0.0 0.0 0.00 0.00 0.00 68 1011.9
20260904232052 90 257 0.0 0.0 0.00 0.00 0.00 69 1012.0
20260904231952 90 257 0.0 0.0 0.00 0.00 0.00 69 1012.0
20260904231852 90 257 0.0 0.0 0.00 0.00 0.00 69 1012.0
20260904231753 90 257 0.0 0.0 0.00 0.00 0.00 69 1012.0
20260904231652 91 257 0.0 0.0 0.00 0.00 0.00 69 1012.0
20260904231553 91 257 0.0 0.0 0.00 0.00 0.00 69 1012.0
20260904231453 91 257 0.0 0.0 0.00 0.00 0.00 69 1012.0
20260904231353 91 257 0.0 0.0 0.00 0.00 0.00 69 1012.0
20260904231253 91 257 0.0 0.0 0.00 0.00 0.00 69 1012.0
20260904231153 91 257 0.0 0.0 0.00 0.00 0.00 68 1012.0
20260904231053 91 257 0.0 0.0 0.00 0.00 0.00 68 1011.9
20260904230952 91 257 0.0 0.0 0.00 0.00 0.00 68 1012.0
20260904230852 91 257 0.0 0.0 0.00 0.00 0.00 67 1012.0
20260904230752 91 257 0.0 0.0 0.00 0.00 0.00 67 1011.9
20260904230652 91 257 0.0 0.0 0.00 0.00 0.00 66 1011.9
20260904230552 91 257 0.0 0.0 0.00 0.00 0.00 66 1011.9
20260904230452 91 257 0.0 0.0 0.00 0.00 0.00 66 1012.0
20260904230352 92 257 0.0 0.0 0.00 0.00 0.00 65 1011.9
20260904230252 92 257 0.0 0.0 0.00 0.00 0.00 65 1011.9
20260904230153 92 257 0.0 0.0 0.00 0.00 0.00 65 1011.9
20260904230053 92 257 0.0 0.0 0.00 0.00 0.00 66 1011.9
20260904225952 92 257 0.0 0.0 0.00 0.00 0.00 66 1012.0
20260904225852 92 257 0.0 0.0 0.00 0.00 0.00 66 1011.9
20260904225753 92 257 0.0 0.0 0.00 0.00 0.00 65 1011.9
20260904225652 92 257 0.0 0.0 0.00 0.00 0.00 65 1011.9
20260904225552 92 257 0.0 0.0 0.00 0.00 0.00 64 1012.0
20260904225452 92 257 0.0 0.0 0.00 0.00 0.00 64 1011.9
20260904225352 92 257 0.0 0.0 0.00 0.00 0.00 64 1012.0
20260904225252 92 257 0.0 0.0 0.00 0.00 0.00 64 1012.0
20260904225152 92 257 0.0 0.0 0.00 0.00 0.00 63 1012.0
20260904225052 92 257 0.0 0.0 0.00 0.00 0.00 63 1012.0
20260904224952 92 257 0.0 0.0 0.00 0.00 0.00 63 1012.0
20260904224852 93 257 0.0 0.0 0.00 0.00 0.00 63 1012.1
20260904224752 93 257 0.0 0.0 0.00 0.00 0.00 63 1012.0
20260904224652 93 257 0.0 0.0 0.00 0.00 0.00 63 1012.0
20260904224551 93 257 0.0 0.0 0.00 0.00 0.00 62 1012.1
20260904224451 93 257 0.0 0.0 0.00 0.00 0.00 62 1012.0
20260904224352 93 257 0.0 0.0 0.00 0.00 0.00 62 1012.1
20260904224252 93 257 0.0 0.0 0.00 0.00 0.00 62 1012.0
20260904224153 93 257 0.0 0.0 0.00 0.00 0.00 62 1012.0
20260904224052 93 257 0.0 0.9 0.00 0.00 0.00 62 1012.0
20260904223952 93 257 0.0 0.9 0.00 0.00 0.00 61 1012.0
20260904223852 93 257 0.0 0.9 0.00 0.00 0.00 61 1012.0
20260904223752 93 257 0.0 2.6 0.00 0.00 0.00 61 1012.1
20260904223652 94 257 0.0 2.6 0.00 0.00 0.00 61 1012.0
20260904223551 94 257 0.0 2.6 0.00 0.00 0.00 61 1012.0
20260904223452 94 257 0.0 2.6 0.00 0.00 0.00 61 1012.1
20260904223351 94 257 0.0 2.6 0.00 0.00 0.00 60 1012.0
20260904223251 94 257 0.0 2.6 0.00 0.00 0.00 60 1012.1
20260904223151 94 257 0.0 2.6 0.00 0.00 0.00 61 1012.1
20260904223051 94 257 0.0 2.6 0.00 0.00 0.00 60 1012.0
20260904222951 94 257 0.0 2.6 0.00 0.00 0.00 60 1012.1
20260904222851 94 257 0.0 2.6 0.00 0.00 0.00 60 1012.1
20260904222751 94 257 0.0 0.0 0.00 0.00 0.00 60 1012.1
20260904222651 94 257 0.0 0.0 0.00 0.00 0.00 59 1012.0
20260904222551 94 257 0.0 0.0 0.00 0.00 0.00 59 1012.1
20260904222452 94 257 0.0 0.0 0.00 0.00 0.00 58 1012.1
20260904222352 94 257 0.0 0.0 0.00 0.00 0.00 58 1012.1
20260904222252 95 257 0.0 0.0 0.00 0.00 0.00 59 1012.1
20260904222151 95 257 0.0 0.0 0.00 0.00 0.00 58 1012.1
20260904222051 95 257 0.0 0.0 0.00 0.00 0.00 59 1012.2
20260904221951 95 257 0.0 0.0 0.00 0.00 0.00 58 1012.2
20260904221851 95 257 0.0 0.9 0.00 0.00 0.00 58 1012.1
20260904221751 95 257 0.0 0.9 0.00 0.00 0.00 57 1012.2
20260904221651 95 257 0.0 0.9 0.00 0.00 0.00 58 1012.2
20260904221551 95 257 0.0 1.7 0.00 0.00 0.00 58 1012.1
20260904221451 95 257 0.0 1.7 0.00 0.00 0.00 58 1012.1
20260904221351 95 257 0.0 1.7 0.00 0.00 0.00 58 1012.1
20260904221251 96 257 0.0 1.7 0.00 0.00 0.00 58 1012.1
20260904221151 96 257 0.0 1.7 0.00 0.00 0.00 59 1012.1
20260904221052 96 257 0.0 1.7 0.00 0.00 0.00 59 1012.1
20260904220951 96 257 0.0 1.7 0.00 0.00 0.00 59 1012.1
20260904220851 96 257 0.0 1.7 0.00 0.00 0.00 58 1012.0
20260904220751 96 257 0.0 1.7 0.00 0.00 0.00 58 1012.1
20260904220651 96 257 0.0 1.7 0.00 0.00 0.00 57 1012.1
20260904220551 96 257 0.0 1.7 0.00 0.00 0.00 58 1012.2
20260904220451 96 257 0.0 1.7 0.00 0.00 0.00 57 1012.2
20260904220351 96 257 0.0 1.7 0.00 0.00 0.00 57 1012.1
20260904220251 96 257 0.0 1.7 0.00 0.00 0.00 57 1012.1
20260904220151 96 257 0.0 1.7 0.00 0.00 0.00 57 1012.2
20260904220051 96 257 0.0 1.7 0.00 0.00 0.00 57 1012.2
20260904215950 96 257 0.0 1.7 0.00 0.00 0.00 57 1012.2
20260904215851 96 257 0.0 1.7 0.00 0.00 0.00 56 1012.1
20260904215750 96 257 0.0 0.0 0.00 0.00 0.00 56 1012.2
20260904215651 96 257 0.0 0.0 0.00 0.00 0.00 56 1012.2
20260904215551 96 257 0.0 0.0 0.00 0.00 0.00 55 1012.2
20260904215451 97 257 0.0 0.0 0.00 0.00 0.00 55 1012.2
20260904215351 97 257 0.0 0.0 0.00 0.00 0.00 55 1012.2
20260904215251 97 257 0.0 0.0 0.00 0.00 0.00 55 1012.2
20260904215149 97 257 0.0 0.0 0.00 0.00 0.00 55 1012.3
20260904215050 97 257 0.0 0.0 0.00 0.00 0.00 55 1012.3
20260904214950 97 257 0.0 0.0 0.00 0.00 0.00 55 1012.3
20260904214850 97 257 0.0 0.0 0.00 0.00 0.00 54 1012.2
20260904214750 97 257 0.0 0.0 0.00 0.00 0.00 54 1012.3
20260904214651 97 257 0.0 0.0 0.00 0.00 0.00 54 1012.3
20260904214551 97 257 0.0 0.0 0.00 0.00 0.00 54 1012.3
20260904214451 97 257 0.0 0.0 0.00 0.00 0.00 53 1012.3
20260904214350 98 257 0.0 0.0 0.00 0.00 0.00 53 1012.3
20260904214250 98 257 0.0 0.0 0.00 0.00 0.00 52 1012.3
20260904214150 98 257 0.0 0.0 0.00 0.00 0.00 51 1012.3
20260904214051 98 257 0.0 0.0 0.00 0.00 0.00 51 1012.3
20260904213951 98 257 0.0 0.0 0.00 0.00 0.00 52 1012.3
20260904213851 98 257 0.0 0.0 0.00 0.00 0.00 51 1012.3
20260904213750 99 257 0.0 0.9 0.00 0.00 0.00 51 1012.3
20260904213650 99 257 0.0 0.9 0.00 0.00 0.00 50 1012.3
20260904213550 99 257 0.0 0.9 0.00 0.00 0.00 50 1012.3
20260904213450 99 257 0.0 0.9 0.00 0.00 0.00 50 1012.3
20260904213350 99 257 0.0 0.9 0.00 0.00 0.00 49 1012.3
20260904213250 99 257 0.0 3.5 0.00 0.00 0.00 49 1012.3
20260904213150 99 257 0.0 3.5 0.00 0.00 0.00 48 1012.2
20260904213050 99 257 0.0 3.5 0.00 0.00 0.00 48 1012.3
20260904212950 99 257 0.0 3.5 0.00 0.00 0.00 49 1012.3
20260904212850 99 257 0.0 3.5 0.00 0.00 0.00 49 1012.3
20260904212750 99 257 0.0 3.5 0.00 0.00 0.00 49 1012.3
20260904212650 99 257 0.0 3.5 0.00 0.00 0.00 48 1012.3
20260904212550 99 257 0.0 3.5 0.00 0.00 0.00 49 1012.3
20260904212450 99 257 0.9 3.5 0.00 0.00 0.00 49 1012.3
20260904212350 99 257 0.9 3.5 0.00 0.00 0.00 47 1012.3
20260904212250 99 257 0.9 1.7 0.00 0.00 0.00 48 1012.4
20260904212150 99 257 0.9 1.7 0.00 0.00 0.00 50 1012.4
20260904212050 99 257 0.0 0.9 0.00 0.00 0.00 51 1012.4
20260904211950 99 257 0.0 0.9 0.00 0.00 0.00 50 1012.4
20260904211850 99 257 0.0 0.9 0.00 0.00 0.00 50 1012.4
20260904211750 99 257 0.0 0.9 0.00 0.00 0.00 51 1012.4
20260904211649 99 257 0.0 0.9 0.00 0.00 0.00 49 1012.3
20260904211549 99 257 0.0 0.9 0.00 0.00 0.00 49 1012.4
20260904211449 99 257 0.0 0.9 0.00 0.00 0.00 50 1012.4
20260904211349 99 257 0.0 1.7 0.00 0.00 0.00 51 1012.4
20260904211249 99 257 0.0 1.7 0.00 0.00 0.00 53 1012.4
20260904211149 99 257 0.0 1.7 0.00 0.00 0.00 53 1012.4
20260904211049 99 257 0.0 1.7 0.00 0.00 0.00 51 1012.4
20260904210949 99 257 0.0 1.7 0.00 0.00 0.00 53 1012.4
20260904210850 99 257 0.0 1.7 0.00 0.00 0.00 52 1012.4
20260904210750 99 257 0.0 1.7 0.00 0.00 0.00 50 1012.4
20260904210650 99 257 0.0 1.7 0.00 0.00 0.00 51 1012.5
20260904210550 99 257 0.0 1.7 0.00 0.00 0.00 51 1012.5
20260904210450 99 257 0.0 1.7 0.00 0.00 0.00 52 1012.5
20260904210350 99 257 0.0 0.9 0.00 0.00 0.00 52 1012.4
20260904210249 99 257 0.0 0.9 0.00 0.00 0.00 51 1012.5
20260904210149 99 257 0.0 0.9 0.00 0.00 0.00 51 1012.5
20260904210049 99 257 0.0 0.9 0.00 0.00 0.00 50 1012.6
20260904205949 99 257 0.0 0.9 0.00 0.00 0.00 51 1012.6
20260904205849 100 257 0.0 0.9 0.00 0.00 0.00 51 1012.6
20260904205749 100 257 0.0 0.9 0.00 0.00 0.00 50 1012.7
20260904205649 100 257 0.0 0.9 0.00 0.00 0.00 50 1012.6
20260904205549 100 257 0.0 1.7 0.00 0.00 0.00 49 1012.7
20260904205449 100 257 0.0 1.7 0.00 0.00 0.00 47 1012.7
20260904205349 100 257 0.0 1.7 0.00 0.00 0.00 48 1012.7
20260904205249 100 257 0.0 1.7 0.00 0.00 0.00 48 1012.7
20260904205149 100 257 0.0 1.7 0.00 0.00 0.00 48 1012.7